Wetterdaten: Dienstag, 04.07.2023
Datum Zeit Temp. Aussen Temp. o. S. Temp +5cm Feuchte Auss Luftdruck Regen Sonnenschein Regendauer Solar Windben Empfang
04.07.2023 00:00 18,1 C 17,2 C 13,9 C 65 % 1011,5 hPa 0,0 l/m 0 min 0 min 0 W/m 12,9 km/h (3 Bft) 100,00 %
04.07.2023 00:02 18,0 C 17,2 C 13,9 C 65 % 1011,5 hPa 0,0 l/m 0 min 0 min 0 W/m 16,1 km/h (3 Bft) 100,00 %
04.07.2023 00:04 18,0 C 17,2 C 13,9 C 65 % 1011,5 hPa 0,0 l/m 0 min 0 min 0 W/m 9,7 km/h (2 Bft) 100,00 %
04.07.2023 00:08 18,0 C 17,2 C 13,9 C 66 % 1011,6 hPa 0,0 l/m 0 min 0 min 0 W/m 19,3 km/h (3 Bft) 100,00 %
04.07.2023 00:10 18,0 C 17,2 C 13,9 C 66 % 1011,6 hPa 0,0 l/m 0 min 0 min 0 W/m 16,1 km/h (3 Bft) 100,00 %
04.07.2023 00:12 18,0 C 17,2 C 13,9 C 66 % 1011,6 hPa 0,0 l/m 0 min 0 min 0 W/m 12,9 km/h (3 Bft) 100,00 %
04.07.2023 00:14 18,0 C 17,2 C 13,9 C 66 % 1011,5 hPa 0,0 l/m 0 min 0 min 0 W/m 6,4 km/h (2 Bft) 100,00 %
04.07.2023 00:16 17,9 C 17,2 C 13,9 C 66 % 1011,5 hPa 0,0 l/m 0 min 0 min 0 W/m 19,3 km/h (3 Bft) 97,87 %
04.07.2023 00:18 17,9 C 17,2 C 13,9 C 66 % 1011,6 hPa 0,0 l/m 0 min 0 min 0 W/m 12,9 km/h (3 Bft) 97,87 %
04.07.2023 00:20 17,9 C 17,2 C 13,9 C 66 % 1011,6 hPa 0,0 l/m 0 min 0 min 0 W/m 12,9 km/h (3 Bft) 97,87 %
04.07.2023 00:22 17,9 C 17,2 C 13,9 C 66 % 1011,5 hPa 0,0 l/m 0 min 0 min 0 W/m 16,1 km/h (3 Bft) 97,87 %
04.07.2023 00:24 17,9 C 17,2 C 13,9 C 66 % 1011,6 hPa 0,0 l/m 0 min 0 min 0 W/m 19,3 km/h (3 Bft) 97,87 %
04.07.2023 00:26 17,9 C 17,2 C 13,9 C 66 % 1011,6 hPa 0,0 l/m 0 min 0 min 0 W/m 29,0 km/h (5 Bft) 97,83 %
04.07.2023 00:28 17,9 C 17,2 C 13,9 C 66 % 1011,5 hPa 0,0 l/m 0 min 0 min 0 W/m 16,1 km/h (3 Bft) 97,87 %
04.07.2023 00:30 17,9 C 17,2 C 13,9 C 67 % 1011,5 hPa 0,0 l/m 0 min 0 min 0 W/m 12,9 km/h (3 Bft) 97,87 %
04.07.2023 00:32 17,9 C 17,2 C 13,9 C 66 % 1011,5 hPa 0,0 l/m 0 min 0 min 0 W/m 16,1 km/h (3 Bft) 97,87 %
04.07.2023 00:34 17,9 C 17,2 C 13,9 C 67 % 1011,5 hPa 0,0 l/m 0 min 0 min 0 W/m 19,3 km/h (3 Bft) 97,87 %
04.07.2023 00:36 17,9 C 17,2 C 13,9 C 66 % 1011,6 hPa 0,0 l/m 0 min 0 min 0 W/m 12,9 km/h (3 Bft) 95,74 %
04.07.2023 00:38 17,9 C 17,2 C 13,9 C 67 % 1011,5 hPa 0,0 l/m 0 min 0 min 0 W/m 9,7 km/h (2 Bft) 61,70 %
04.07.2023 00:40 17,9 C 17,2 C 13,9 C 67 % 1011,5 hPa 0,0 l/m 0 min 0 min 0 W/m 16,1 km/h (3 Bft) 93,02 %
04.07.2023 00:42 17,9 C 17,2 C 13,9 C 67 % 1011,5 hPa 0,0 l/m 0 min 0 min 0 W/m 9,7 km/h (2 Bft) 97,83 %
04.07.2023 00:44 17,9 C 17,2 C 13,9 C 66 % 1011,5 hPa 0,0 l/m 0 min 0 min 0 W/m 22,5 km/h (4 Bft) 100,00 %
04.07.2023 00:46 17,9 C 16,7 C 13,9 C 67 % 1011,5 hPa 0,0 l/m 0 min 0 min 0 W/m 16,1 km/h (3 Bft) 100,00 %
04.07.2023 00:48 17,8 C 16,7 C 13,9 C 67 % 1011,6 hPa 0,0 l/m 0 min 0 min 0 W/m 19,3 km/h (3 Bft) 100,00 %
04.07.2023 00:50 17,8 C 16,7 C 13,9 C 67 % 1011,6 hPa 0,0 l/m 0 min 0 min 0 W/m 6,4 km/h (2 Bft) 100,00 %
04.07.2023 00:52 17,8 C 16,7 C 13,3 C 67 % 1011,6 hPa 0,0 l/m 0 min 0 min 0 W/m 16,1 km/h (3 Bft) 97,83 %
04.07.2023 00:54 17,7 C 16,7 C 13,9 C 67 % 1011,6 hPa 0,0 l/m 0 min 0 min 0 W/m 16,1 km/h (3 Bft) 100,00 %
04.07.2023 00:56 17,7 C 16,7 C 13,3 C 67 % 1011,6 hPa 0,0 l/m 0 min 0 min 0 W/m 16,1 km/h (3 Bft) 100,00 %
04.07.2023 00:58 17,7 C 16,7 C 13,3 C 67 % 1011,8 hPa 0,0 l/m 0 min 0 min 0 W/m 19,3 km/h (3 Bft) 100,00 %
04.07.2023 01:00 17,7 C 16,7 C 13,3 C 67 % 1011,7 hPa 0,0 l/m 0 min 0 min 0 W/m 19,3 km/h (3 Bft) 100,00 %
04.07.2023 01:02 17,6 C 16,7 C 13,3 C 68 % 1011,7 hPa 0,0 l/m 0 min 0 min 0 W/m 19,3 km/h (3 Bft) 97,87 %
04.07.2023 01:04 17,6 C 16,7 C 13,3 C 68 % 1011,7 hPa 0,0 l/m 0 min 0 min 0 W/m 22,5 km/h (4 Bft) 100,00 %
04.07.2023 01:06 17,6 C 16,7 C 13,3 C 68 % 1011,8 hPa 0,0 l/m 0 min 0 min 0 W/m 25,7 km/h (4 Bft) 100,00 %
04.07.2023 01:08 17,6 C 16,7 C 13,3 C 68 % 1011,7 hPa 0,0 l/m 0 min 0 min 0 W/m 12,9 km/h (3 Bft) 100,00 %
04.07.2023 01:10 17,6 C 16,7 C 13,3 C 68 % 1011,8 hPa 0,0 l/m 0 min 0 min 0 W/m 19,3 km/h (3 Bft) 97,87 %
04.07.2023 01:12 17,6 C 16,7 C 13,3 C 68 % 1011,7 hPa 0,0 l/m 0 min 0 min 0 W/m 41,8 km/h (6 Bft) 100,00 %
04.07.2023 01:14 17,5 C 16,7 C 13,3 C 68 % 1011,8 hPa 0,0 l/m 0 min 0 min 0 W/m 22,5 km/h (4 Bft) 97,87 %
04.07.2023 01:16 17,5 C 16,7 C 13,3 C 69 % 1011,8 hPa 0,0 l/m 0 min 0 min 0 W/m 22,5 km/h (4 Bft) 100,00 %
04.07.2023 01:18 17,4 C 16,7 C 13,3 C 69 % 1011,8 hPa 0,0 l/m 0 min 0 min 0 W/m 16,1 km/h (3 Bft) 100,00 %
04.07.2023 01:20 17,4 C 16,7 C 13,3 C 69 % 1011,9 hPa 0,0 l/m 0 min 0 min 0 W/m 19,3 km/h (3 Bft) 97,87 %
04.07.2023 01:22 17,4 C 16,7 C 13,3 C 69 % 1011,9 hPa 0,0 l/m 0 min 0 min 0 W/m 16,1 km/h (3 Bft) 100,00 %
04.07.2023 01:24 17,3 C 16,7 C 13,3 C 69 % 1011,8 hPa 0,0 l/m 0 min 0 min 0 W/m 19,3 km/h (3 Bft) 97,87 %
04.07.2023 01:26 17,3 C 16,7 C 13,3 C 69 % 1011,9 hPa 0,0 l/m 0 min 0 min 0 W/m 16,1 km/h (3 Bft) 95,74 %
04.07.2023 01:28 17,3 C 16,7 C 13,3 C 69 % 1011,9 hPa 0,0 l/m 0 min 0 min 0 W/m 19,3 km/h (3 Bft) 97,87 %
04.07.2023 01:30 17,3 C 16,7 C 13,3 C 70 % 1011,9 hPa 0,0 l/m 0 min 0 min 0 W/m 19,3 km/h (3 Bft) 97,87 %
04.07.2023 01:32 17,3 C 16,1 C 13,3 C 70 % 1011,9 hPa 0,0 l/m 0 min 0 min 0 W/m 12,9 km/h (3 Bft) 97,87 %
04.07.2023 01:34 17,2 C 16,1 C 13,3 C 70 % 1011,9 hPa 0,0 l/m 0 min 0 min 0 W/m 19,3 km/h (3 Bft) 97,87 %
04.07.2023 01:36 17,2 C 16,1 C 13,3 C 70 % 1011,9 hPa 0,0 l/m 0 min 0 min 0 W/m 22,5 km/h (4 Bft) 95,65 %
04.07.2023 01:38 17,2 C 16,1 C 13,3 C 70 % 1011,9 hPa 0,0 l/m 0 min 0 min 0 W/m 16,1 km/h (3 Bft) 97,87 %
04.07.2023 01:40 17,2 C 16,1 C 12,8 C 71 % 1012,0 hPa 0,0 l/m 0 min 0 min 0 W/m 16,1 km/h (3 Bft) 95,74 %
04.07.2023 01:42 17,1 C 16,1 C 12,8 C 71 % 1012,0 hPa 0,0 l/m 0 min 0 min 0 W/m 19,3 km/h (3 Bft) 93,62 %
04.07.2023 01:44 17,1 C 16,1 C 12,8 C 71 % 1012,1 hPa 0,0 l/m 0 min 0 min 0 W/m 19,3 km/h (3 Bft) 93,62 %
04.07.2023 01:46 17,1 C 16,1 C 12,8 C 71 % 1012,0 hPa 0,0 l/m 0 min 0 min 0 W/m 22,5 km/h (4 Bft) 95,74 %
04.07.2023 01:48 17,0 C 16,1 C 12,8 C 71 % 1012,0 hPa 0,0 l/m 0 min 0 min 0 W/m 25,7 km/h (4 Bft) 95,74 %
04.07.2023 01:50 17,0 C 16,1 C 12,8 C 71 % 1012,0 hPa 0,0 l/m 0 min 0 min 0 W/m 19,3 km/h (3 Bft) 95,65 %
04.07.2023 01:52 16,9 C 16,1 C 12,8 C 71 % 1012,0 hPa 0,0 l/m 0 min 0 min 0 W/m 12,9 km/h (3 Bft) 93,75 %
04.07.2023 01:54 16,9 C 16,1 C 12,8 C 71 % 1012,0 hPa 0,0 l/m 0 min 0 min 0 W/m 19,3 km/h (3 Bft) 93,62 %
04.07.2023 01:56 16,9 C 16,1 C 12,8 C 71 % 1012,0 hPa 0,0 l/m 0 min 0 min 0 W/m 19,3 km/h (3 Bft) 97,14 %
04.07.2023 01:58 16,9 C 16,1 C 12,8 C 72 % 1012,0 hPa 0,0 l/m 0 min 0 min 0 W/m 19,3 km/h (3 Bft) 95,74 %
04.07.2023 02:00 16,9 C 16,1 C 12,8 C 72 % 1012,0 hPa 0,0 l/m 0 min 0 min 0 W/m 12,9 km/h (3 Bft) 93,75 %
04.07.2023 02:02 16,9 C 16,1 C 12,8 C 72 % 1012,1 hPa 0,0 l/m 0 min 0 min 0 W/m 9,7 km/h (2 Bft) 91,49 %
04.07.2023 02:04 16,8 C 16,1 C 12,8 C 72 % 1012,1 hPa 0,0 l/m 0 min 0 min 0 W/m 12,9 km/h (3 Bft) 93,62 %
04.07.2023 02:06 16,8 C 15,6 C 12,8 C 72 % 1012,1 hPa 0,0 l/m 0 min 0 min 0 W/m 16,1 km/h (3 Bft) 94,83 %
04.07.2023 02:08 16,8 C 15,6 C 12,8 C 72 % 1012,1 hPa 0,0 l/m 0 min 0 min 0 W/m 9,7 km/h (2 Bft) 91,43 %
04.07.2023 02:10 16,8 C 15,6 C 12,8 C 72 % 1012,1 hPa 0,0 l/m 0 min 0 min 0 W/m 32,2 km/h (5 Bft) 93,62 %
04.07.2023 02:14 16,7 C 15,6 C 12,8 C 72 % 1012,1 hPa 0,0 l/m 0 min 0 min 0 W/m 6,4 km/h (2 Bft) 100,00 %
04.07.2023 02:16 16,7 C 15,6 C 12,8 C 73 % 1012,1 hPa 0,0 l/m 0 min 0 min 0 W/m 16,1 km/h (3 Bft) 93,62 %
04.07.2023 02:18 16,6 C 15,6 C 12,8 C 73 % 1012,1 hPa 0,0 l/m 0 min 0 min 0 W/m 12,9 km/h (3 Bft) 93,62 %
04.07.2023 02:20 16,6 C 15,6 C 12,8 C 73 % 1012,1 hPa 0,0 l/m 0 min 0 min 0 W/m 16,1 km/h (3 Bft) 93,48 %
04.07.2023 02:22 16,6 C 15,6 C 12,8 C 73 % 1012,1 hPa 0,0 l/m 0 min 0 min 0 W/m 29,0 km/h (5 Bft) 95,74 %
04.07.2023 02:24 16,6 C 15,6 C 12,2 C 73 % 1012,2 hPa 0,0 l/m 0 min 0 min 0 W/m 12,9 km/h (3 Bft) 95,74 %
04.07.2023 02:26 16,5 C 15,6 C 12,2 C 74 % 1012,2 hPa 0,0 l/m 0 min 0 min 0 W/m 6,4 km/h (2 Bft) 94,44 %
04.07.2023 02:28 16,5 C 15,6 C 12,2 C 74 % 1012,2 hPa 0,0 l/m 0 min 0 min 0 W/m 9,7 km/h (2 Bft) 95,74 %
04.07.2023 02:30 16,4 C 15,6 C 12,2 C 74 % 1012,2 hPa 0,0 l/m 0 min 0 min 0 W/m 16,1 km/h (3 Bft) 95,74 %
04.07.2023 02:32 16,4 C 15,6 C 12,2 C 74 % 1012,2 hPa 0,0 l/m 0 min 0 min 0 W/m 12,9 km/h (3 Bft) 97,87 %
04.07.2023 02:34 16,4 C 15,6 C 12,2 C 74 % 1012,2 hPa 0,0 l/m 0 min 0 min 0 W/m 16,1 km/h (3 Bft) 97,87 %
04.07.2023 02:36 16,4 C 15,6 C 12,2 C 74 % 1012,3 hPa 0,0 l/m 0 min 0 min 0 W/m 6,4 km/h (2 Bft) 100,00 %
04.07.2023 02:38 16,3 C 15,6 C 12,2 C 74 % 1012,2 hPa 0,0 l/m 0 min 0 min 0 W/m 9,7 km/h (2 Bft) 100,00 %
04.07.2023 02:40 16,3 C 15,6 C 12,2 C 75 % 1012,2 hPa 0,0 l/m 0 min 0 min 0 W/m 6,4 km/h (2 Bft) 100,00 %
04.07.2023 02:42 16,3 C 15,6 C 12,2 C 75 % 1012,2 hPa 0,0 l/m 0 min 0 min 0 W/m 6,4 km/h (2 Bft) 98,08 %
04.07.2023 02:44 16,3 C 15,6 C 12,2 C 75 % 1012,2 hPa 0,0 l/m 0 min 0 min 0 W/m 6,4 km/h (2 Bft) 100,00 %
04.07.2023 02:46 16,2 C 15,0 C 12,2 C 75 % 1012,1 hPa 0,0 l/m 0 min 0 min 0 W/m 16,1 km/h (3 Bft) 97,87 %
04.07.2023 02:48 16,2 C 15,6 C 12,2 C 75 % 1012,1 hPa 0,0 l/m 0 min 0 min 0 W/m 12,9 km/h (3 Bft) 100,00 %
04.07.2023 02:50 16,2 C 15,0 C 12,2 C 75 % 1012,1 hPa 0,0 l/m 0 min 0 min 0 W/m 6,4 km/h (2 Bft) 100,00 %
04.07.2023 02:52 16,2 C 15,0 C 12,2 C 76 % 1012,2 hPa 0,0 l/m 0 min 0 min 0 W/m 12,9 km/h (3 Bft) 100,00 %
04.07.2023 02:54 16,1 C 15,0 C 12,2 C 76 % 1012,2 hPa 0,0 l/m 0 min 0 min 0 W/m 9,7 km/h (2 Bft) 100,00 %
04.07.2023 02:56 16,1 C 15,0 C 12,2 C 76 % 1012,1 hPa 0,0 l/m 0 min 0 min 0 W/m 6,4 km/h (2 Bft) 100,00 %
04.07.2023 02:58 16,1 C 15,0 C 12,2 C 76 % 1012,2 hPa 0,0 l/m 0 min 0 min 0 W/m 9,7 km/h (2 Bft) 97,96 %
04.07.2023 03:00 16,1 C 15,0 C 12,2 C 76 % 1012,1 hPa 0,0 l/m 0 min 0 min 0 W/m 16,1 km/h (3 Bft) 100,00 %
04.07.2023 03:02 16,0 C 15,0 C 11,7 C 76 % 1012,2 hPa 0,0 l/m 0 min 0 min 0 W/m 12,9 km/h (3 Bft) 100,00 %
04.07.2023 03:04 16,0 C 15,0 C 11,7 C 76 % 1012,2 hPa 0,0 l/m 0 min 0 min 0 W/m 9,7 km/h (2 Bft) 100,00 %
04.07.2023 03:06 15,9 C 15,0 C 12,2 C 76 % 1012,2 hPa 0,0 l/m 0 min 0 min 0 W/m 12,9 km/h (3 Bft) 100,00 %
04.07.2023 03:08 15,9 C 15,0 C 11,7 C 76 % 1012,2 hPa 0,0 l/m 0 min 0 min 0 W/m 32,2 km/h (5 Bft) 100,00 %
04.07.2023 03:10 15,9 C 15,0 C 11,7 C 77 % 1012,1 hPa 0,0 l/m 0 min 0 min 0 W/m 9,7 km/h (2 Bft) 100,00 %
04.07.2023 03:12 15,8 C 15,0 C 11,7 C 77 % 1012,2 hPa 0,0 l/m 0 min 0 min 0 W/m 6,4 km/h (2 Bft) 100,00 %
04.07.2023 03:14 15,8 C 15,0 C 11,7 C 77 % 1012,2 hPa 0,0 l/m 0 min 0 min 0 W/m 9,7 km/h (2 Bft) 100,00 %
04.07.2023 03:16 15,8 C 15,0 C 11,7 C 77 % 1012,2 hPa 0,0 l/m 0 min 0 min 0 W/m 12,9 km/h (3 Bft) 100,00 %
04.07.2023 03:18 15,8 C 15,0 C 11,7 C 77 % 1012,2 hPa 0,0 l/m 0 min 0 min 0 W/m 12,9 km/h (3 Bft) 100,00 %
04.07.2023 03:20 15,8 C 15,0 C 11,7 C 77 % 1012,2 hPa 0,0 l/m 0 min 0 min 0 W/m 16,1 km/h (3 Bft) 97,83 %
04.07.2023 03:22 15,8 C 15,0 C 11,7 C 77 % 1012,1 hPa 0,0 l/m 0 min 0 min 0 W/m 19,3 km/h (3 Bft) 97,87 %
04.07.2023 03:24 15,7 C 15,0 C 11,7 C 77 % 1012,2 hPa 0,0 l/m 0 min 0 min 0 W/m 12,9 km/h (3 Bft) 100,00 %
04.07.2023 03:26 15,7 C 15,0 C 11,7 C 77 % 1012,1 hPa 0,0 l/m 0 min 0 min 0 W/m 9,7 km/h (2 Bft) 98,15 %
04.07.2023 03:28 15,7 C 15,0 C 11,7 C 78 % 1012,2 hPa 0,0 l/m 0 min 0 min 0 W/m 16,1 km/h (3 Bft) 100,00 %
04.07.2023 03:30 15,7 C 15,0 C 11,7 C 78 % 1012,2 hPa 0,0 l/m 0 min 0 min 0 W/m 9,7 km/h (2 Bft) 100,00 %
04.07.2023 03:32 15,7 C 15,0 C 11,7 C 78 % 1012,2 hPa 0,0 l/m 0 min 0 min 0 W/m 12,9 km/h (3 Bft) 100,00 %
04.07.2023 03:34 15,6 C 15,0 C 11,7 C 78 % 1012,2 hPa 0,0 l/m 0 min 0 min 0 W/m 12,9 km/h (3 Bft) 100,00 %
04.07.2023 03:36 15,6 C 15,0 C 11,7 C 78 % 1012,2 hPa 0,0 l/m 0 min 0 min 0 W/m 19,3 km/h (3 Bft) 100,00 %
04.07.2023 03:38 15,6 C 15,0 C 11,7 C 79 % 1012,2 hPa 0,0 l/m 0 min 0 min 0 W/m 29,0 km/h (5 Bft) 100,00 %
04.07.2023 03:40 15,6 C 15,0 C 11,7 C 79 % 1012,2 hPa 0,0 l/m 0 min 0 min 0 W/m 9,7 km/h (2 Bft) 100,00 %
04.07.2023 03:42 15,6 C 14,4 C 11,7 C 79 % 1012,2 hPa 0,0 l/m 0 min 0 min 0 W/m 12,9 km/h (3 Bft) 97,87 %
04.07.2023 03:44 15,6 C 14,4 C 11,7 C 79 % 1012,3 hPa 0,0 l/m 0 min 0 min 0 W/m 6,4 km/h (2 Bft) 100,00 %
04.07.2023 03:46 15,6 C 14,4 C 11,7 C 79 % 1012,3 hPa 0,0 l/m 0 min 0 min 0 W/m 9,7 km/h (2 Bft) 97,87 %
04.07.2023 03:48 15,6 C 14,4 C 11,7 C 79 % 1012,2 hPa 0,0 l/m 0 min 0 min 0 W/m 12,9 km/h (3 Bft) 97,87 %
04.07.2023 03:50 15,6 C 14,4 C 11,7 C 79 % 1012,3 hPa 0,0 l/m 0 min 0 min 0 W/m 3,2 km/h (1 Bft) 100,00 %
04.07.2023 03:52 15,5 C 14,4 C 11,7 C 79 % 1012,3 hPa 0,0 l/m 0 min 0 min 0 W/m 3,2 km/h (1 Bft) 97,87 %
04.07.2023 03:54 15,4 C 14,4 C 11,7 C 79 % 1012,3 hPa 0,0 l/m 0 min 0 min 0 W/m 12,9 km/h (3 Bft) 97,87 %
04.07.2023 03:56 15,4 C 14,4 C 11,7 C 79 % 1012,3 hPa 0,0 l/m 0 min 0 min 0 W/m 16,1 km/h (3 Bft) 97,87 %
04.07.2023 03:58 15,4 C 14,4 C 11,7 C 79 % 1012,3 hPa 0,0 l/m 0 min 0 min 0 W/m 16,1 km/h (3 Bft) 97,83 %
04.07.2023 04:00 15,4 C 14,4 C 11,7 C 80 % 1012,4 hPa 0,0 l/m 0 min 0 min 0 W/m 16,1 km/h (3 Bft) 97,92 %
04.07.2023 04:02 15,4 C 14,4 C 11,7 C 80 % 1012,3 hPa 0,0 l/m 0 min 0 min 0 W/m 16,1 km/h (3 Bft) 97,87 %
04.07.2023 04:04 15,4 C 14,4 C 11,7 C 80 % 1012,3 hPa 0,0 l/m 0 min 0 min 0 W/m 16,1 km/h (3 Bft) 97,87 %
04.07.2023 04:06 15,3 C 14,4 C 11,7 C 80 % 1012,2 hPa 0,0 l/m 0 min 0 min 0 W/m 16,1 km/h (3 Bft) 97,96 %
04.07.2023 04:08 15,3 C 14,4 C 11,7 C 80 % 1012,3 hPa 0,0 l/m 0 min 0 min 0 W/m 16,1 km/h (3 Bft) 95,74 %
04.07.2023 04:10 15,3 C 14,4 C 11,7 C 80 % 1012,2 hPa 0,0 l/m 0 min 0 min 0 W/m 16,1 km/h (3 Bft) 100,00 %
04.07.2023 04:12 15,3 C 14,4 C 11,7 C 80 % 1012,3 hPa 0,0 l/m 0 min 0 min 0 W/m 12,9 km/h (3 Bft) 97,96 %
04.07.2023 04:14 15,3 C 14,4 C 11,7 C 80 % 1012,3 hPa 0,0 l/m 0 min 0 min 0 W/m 12,9 km/h (3 Bft) 95,74 %
04.07.2023 04:16 15,3 C 14,4 C 11,7 C 81 % 1012,3 hPa 0,0 l/m 0 min 0 min 0 W/m 6,4 km/h (2 Bft) 97,83 %
04.07.2023 04:18 15,3 C 14,4 C 11,1 C 81 % 1012,3 hPa 0,0 l/m 0 min 0 min 0 W/m 6,4 km/h (2 Bft) 95,74 %
04.07.2023 04:20 15,3 C 14,4 C 11,1 C 81 % 1012,3 hPa 0,0 l/m 0 min 0 min 0 W/m 3,2 km/h (1 Bft) 97,87 %
04.07.2023 04:22 15,3 C 14,4 C 11,1 C 81 % 1012,3 hPa 0,0 l/m 0 min 0 min 0 W/m 6,4 km/h (2 Bft) 97,87 %
04.07.2023 04:24 15,3 C 14,4 C 11,1 C 81 % 1012,3 hPa 0,0 l/m 0 min 0 min 0 W/m 12,9 km/h (3 Bft) 100,00 %
04.07.2023 04:26 15,2 C 14,4 C 11,1 C 81 % 1012,2 hPa 0,0 l/m 0 min 0 min 0 W/m 9,7 km/h (2 Bft) 97,87 %
04.07.2023 04:28 15,2 C 14,4 C 11,1 C 81 % 1012,2 hPa 0,0 l/m 0 min 0 min 0 W/m 6,4 km/h (2 Bft) 100,00 %
04.07.2023 04:30 15,2 C 13,9 C 11,1 C 81 % 1012,2 hPa 0,0 l/m 0 min 0 min 0 W/m 12,9 km/h (3 Bft) 95,74 %
04.07.2023 04:32 15,1 C 13,9 C 11,1 C 81 % 1012,2 hPa 0,0 l/m 0 min 0 min 0 W/m 12,9 km/h (3 Bft) 95,65 %
04.07.2023 04:34 15,1 C 14,4 C 11,1 C 81 % 1012,2 hPa 0,0 l/m 0 min 0 min 0 W/m 16,1 km/h (3 Bft) 91,49 %
04.07.2023 04:36 15,1 C 14,4 C 11,1 C 81 % 1012,2 hPa 0,0 l/m 0 min 0 min 0 W/m 22,5 km/h (4 Bft) 95,74 %
04.07.2023 04:38 15,1 C 14,4 C 11,1 C 81 % 1012,2 hPa 0,0 l/m 0 min 0 min 0 W/m 12,9 km/h (3 Bft) 93,62 %
04.07.2023 04:40 15,1 C 14,4 C 11,1 C 82 % 1012,2 hPa 0,0 l/m 0 min 0 min 0 W/m 19,3 km/h (3 Bft) 95,74 %
04.07.2023 04:42 15,1 C 14,4 C 11,1 C 82 % 1012,2 hPa 0,0 l/m 0 min 0 min 0 W/m 12,9 km/h (3 Bft) 95,74 %
04.07.2023 04:44 15,1 C 14,4 C 11,1 C 82 % 1012,3 hPa 0,0 l/m 0 min 0 min 0 W/m 6,4 km/h (2 Bft) 93,48 %
04.07.2023 04:46 15,1 C 14,4 C 11,1 C 82 % 1012,2 hPa 0,0 l/m 0 min 0 min 0 W/m 6,4 km/h (2 Bft) 91,49 %
04.07.2023 04:48 15,1 C 14,4 C 11,1 C 82 % 1012,2 hPa 0,0 l/m 0 min 0 min 0 W/m 16,1 km/h (3 Bft) 95,74 %
04.07.2023 04:50 15,1 C 14,4 C 11,1 C 82 % 1012,2 hPa 0,0 l/m 0 min 0 min 0 W/m 12,9 km/h (3 Bft) 95,74 %
04.07.2023 04:52 15,1 C 13,9 C 11,1 C 82 % 1012,1 hPa 0,0 l/m 0 min 0 min 0 W/m 16,1 km/h (3 Bft) 95,74 %
04.07.2023 04:54 15,0 C 14,4 C 11,1 C 82 % 1012,1 hPa 0,0 l/m 0 min 0 min 0 W/m 16,1 km/h (3 Bft) 93,62 %
04.07.2023 04:56 15,0 C 13,9 C 11,1 C 82 % 1012,1 hPa 0,0 l/m 0 min 0 min 0 W/m 12,9 km/h (3 Bft) 54,35 %
04.07.2023 04:58 14,9 C 13,9 C 11,1 C 82 % 1012,1 hPa 0,0 l/m 0 min 0 min 0 W/m 9,7 km/h (2 Bft) 90,00 %
04.07.2023 05:00 14,9 C 13,9 C 11,1 C 82 % 1012,2 hPa 0,0 l/m 0 min 0 min 0 W/m 12,9 km/h (3 Bft) 95,65 %
04.07.2023 05:02 14,9 C 13,9 C 11,1 C 83 % 1012,2 hPa 0,0 l/m 0 min 0 min 0 W/m 12,9 km/h (3 Bft) 93,62 %
04.07.2023 05:04 14,9 C 13,9 C 11,1 C 83 % 1012,1 hPa 0,0 l/m 0 min 0 min 0 W/m 32,2 km/h (5 Bft) 95,83 %
04.07.2023 05:06 14,9 C 13,9 C 11,1 C 83 % 1012,2 hPa 0,0 l/m 0 min 0 min 0 W/m 25,7 km/h (4 Bft) 95,74 %
04.07.2023 05:08 14,9 C 13,9 C 11,1 C 83 % 1012,2 hPa 0,0 l/m 0 min 0 min 0 W/m 12,9 km/h (3 Bft) 95,74 %
04.07.2023 05:10 14,9 C 13,9 C 11,1 C 83 % 1012,2 hPa 0,0 l/m 0 min 0 min 0 W/m 12,9 km/h (3 Bft) 95,74 %
04.07.2023 05:12 14,9 C 13,9 C 11,1 C 83 % 1012,2 hPa 0,0 l/m 0 min 0 min 0 W/m 12,9 km/h (3 Bft) 91,49 %
04.07.2023 05:14 14,9 C 13,9 C 11,1 C 83 % 1012,2 hPa 0,0 l/m 0 min 0 min 0 W/m 12,9 km/h (3 Bft) 95,65 %
04.07.2023 05:16 14,9 C 13,9 C 11,1 C 83 % 1012,2 hPa 0,0 l/m 0 min 0 min 0 W/m 16,1 km/h (3 Bft) 97,87 %
04.07.2023 05:18 14,9 C 13,9 C 11,1 C 84 % 1012,2 hPa 0,0 l/m 0 min 0 min 0 W/m 6,4 km/h (2 Bft) 97,87 %
04.07.2023 05:20 14,8 C 13,9 C 11,1 C 84 % 1012,2 hPa 0,0 l/m 0 min 0 min 0 W/m 22,5 km/h (4 Bft) 97,87 %
04.07.2023 05:22 14,8 C 13,9 C 11,1 C 84 % 1012,2 hPa 0,0 l/m 0 min 0 min 0 W/m 16,1 km/h (3 Bft) 100,00 %
04.07.2023 05:24 14,8 C 13,9 C 11,1 C 84 % 1012,1 hPa 0,0 l/m 0 min 0 min 0 W/m 9,7 km/h (2 Bft) 100,00 %
04.07.2023 05:26 14,8 C 13,9 C 11,1 C 84 % 1012,2 hPa 0,0 l/m 0 min 0 min 0 W/m 19,3 km/h (3 Bft) 100,00 %
04.07.2023 05:28 14,8 C 13,9 C 11,1 C 84 % 1012,2 hPa 0,0 l/m 0 min 0 min 0 W/m 19,3 km/h (3 Bft) 100,00 %
04.07.2023 05:30 14,8 C 13,9 C 11,1 C 84 % 1012,1 hPa 0,0 l/m 0 min 0 min 2 W/m 16,1 km/h (3 Bft) 97,87 %
04.07.2023 05:32 14,7 C 13,9 C 11,1 C 84 % 1012,1 hPa 0,0 l/m 0 min 0 min 5 W/m 19,3 km/h (3 Bft) 100,00 %
04.07.2023 05:34 14,7 C 13,9 C 11,1 C 84 % 1012,1 hPa 0,0 l/m 0 min 0 min 5 W/m 19,3 km/h (3 Bft) 100,00 %
04.07.2023 05:36 14,7 C 13,9 C 11,1 C 84 % 1012,1 hPa 0,0 l/m 0 min 0 min 7 W/m 19,3 km/h (3 Bft) 100,00 %
04.07.2023 05:38 14,7 C 13,9 C 11,1 C 84 % 1012,1 hPa 0,0 l/m 0 min 0 min 7 W/m 16,1 km/h (3 Bft) 97,87 %
04.07.2023 05:40 14,7 C 13,9 C 11,1 C 84 % 1012,1 hPa 0,0 l/m 0 min 0 min 9 W/m 12,9 km/h (3 Bft) 100,00 %
04.07.2023 05:42 14,7 C 13,9 C 11,1 C 85 % 1012,1 hPa 0,0 l/m 0 min 0 min 11 W/m 19,3 km/h (3 Bft) 91,49 %
04.07.2023 05:44 14,7 C 13,9 C 11,1 C 85 % 1012,1 hPa 0,0 l/m 0 min 0 min 11 W/m 19,3 km/h (3 Bft) 95,74 %
04.07.2023 05:46 14,7 C 13,9 C 11,1 C 85 % 1012,2 hPa 0,0 l/m 0 min 0 min 12 W/m 12,9 km/h (3 Bft) 97,87 %
04.07.2023 05:48 14,7 C 13,9 C 11,1 C 85 % 1012,2 hPa 0,0 l/m 0 min 0 min 12 W/m 12,9 km/h (3 Bft) 97,87 %
04.07.2023 05:50 14,7 C 13,9 C 11,1 C 85 % 1012,2 hPa 0,0 l/m 0 min 0 min 13 W/m 16,1 km/h (3 Bft) 97,87 %
04.07.2023 05:52 14,7 C 13,9 C 11,1 C 85 % 1012,2 hPa 0,0 l/m 0 min 0 min 14 W/m 16,1 km/h (3 Bft) 97,87 %
04.07.2023 05:54 14,7 C 13,9 C 10,6 C 85 % 1012,3 hPa 0,0 l/m 0 min 0 min 14 W/m 12,9 km/h (3 Bft) 95,65 %
04.07.2023 05:56 14,7 C 13,9 C 10,6 C 85 % 1012,3 hPa 0,0 l/m 0 min 0 min 15 W/m 12,9 km/h (3 Bft) 97,87 %
04.07.2023 05:58 14,7 C 13,9 C 10,6 C 85 % 1012,3 hPa 0,0 l/m 0 min 0 min 16 W/m 12,9 km/h (3 Bft) 97,87 %
04.07.2023 06:00 14,7 C 13,9 C 11,1 C 85 % 1012,4 hPa 0,0 l/m 0 min 0 min 17 W/m 9,7 km/h (2 Bft) 93,62 %
04.07.2023 06:02 14,7 C 13,9 C 11,1 C 85 % 1012,4 hPa 0,0 l/m 0 min 0 min 18 W/m 6,4 km/h (2 Bft) 97,87 %
04.07.2023 06:04 14,7 C 13,9 C 11,1 C 85 % 1012,4 hPa 0,0 l/m 0 min 0 min 19 W/m 6,4 km/h (2 Bft) 97,92 %
04.07.2023 06:08 14,6 C 13,9 C 10,6 C 85 % 1012,4 hPa 0,0 l/m 0 min 0 min 20 W/m 12,9 km/h (3 Bft) 97,85 %
04.07.2023 06:10 14,6 C 13,9 C 10,6 C 85 % 1012,4 hPa 0,0 l/m 0 min 0 min 21 W/m 9,7 km/h (2 Bft) 93,62 %
04.07.2023 06:12 14,7 C 13,9 C 10,6 C 86 % 1012,4 hPa 0,0 l/m 0 min 0 min 21 W/m 16,1 km/h (3 Bft) 100,00 %
04.07.2023 06:14 14,6 C 13,9 C 10,6 C 86 % 1012,5 hPa 0,0 l/m 0 min 0 min 22 W/m 12,9 km/h (3 Bft) 97,67 %
04.07.2023 06:16 14,6 C 13,9 C 11,1 C 86 % 1012,5 hPa 0,0 l/m 0 min 0 min 25 W/m 9,7 km/h (2 Bft) 100,00 %
04.07.2023 06:18 14,6 C 13,9 C 11,1 C 86 % 1012,5 hPa 0,0 l/m 0 min 0 min 25 W/m 12,9 km/h (3 Bft) 100,00 %
04.07.2023 06:20 14,7 C 13,9 C 11,1 C 86 % 1012,5 hPa 0,0 l/m 0 min 0 min 26 W/m 9,7 km/h (2 Bft) 100,00 %
04.07.2023 06:22 14,7 C 13,9 C 11,1 C 86 % 1012,5 hPa 0,0 l/m 0 min 0 min 28 W/m 12,9 km/h (3 Bft) 100,00 %
04.07.2023 06:24 14,6 C 13,9 C 11,1 C 86 % 1012,5 hPa 0,0 l/m 0 min 0 min 28 W/m 16,1 km/h (3 Bft) 100,00 %
04.07.2023 06:26 14,6 C 13,9 C 11,1 C 86 % 1012,5 hPa 0,0 l/m 0 min 0 min 30 W/m 22,5 km/h (4 Bft) 96,00 %
04.07.2023 06:28 14,6 C 13,9 C 11,1 C 86 % 1012,6 hPa 0,0 l/m 0 min 0 min 32 W/m 22,5 km/h (4 Bft) 100,00 %
04.07.2023 06:30 14,6 C 13,9 C 11,1 C 86 % 1012,6 hPa 0,0 l/m 0 min 0 min 33 W/m 16,1 km/h (3 Bft) 97,87 %
04.07.2023 06:32 14,7 C 13,9 C 11,1 C 86 % 1012,6 hPa 0,0 l/m 0 min 0 min 35 W/m 29,0 km/h (5 Bft) 100,00 %
04.07.2023 06:34 14,6 C 13,9 C 11,1 C 86 % 1012,6 hPa 0,0 l/m 0 min 0 min 39 W/m 19,3 km/h (3 Bft) 100,00 %
04.07.2023 06:36 14,7 C 13,9 C 11,1 C 86 % 1012,6 hPa 0,0 l/m 0 min 0 min 42 W/m 16,1 km/h (3 Bft) 100,00 %
04.07.2023 06:38 14,7 C 13,9 C 11,1 C 86 % 1012,6 hPa 0,0 l/m 0 min 0 min 43 W/m 12,9 km/h (3 Bft) 100,00 %
04.07.2023 06:40 14,7 C 14,4 C 11,1 C 86 % 1012,7 hPa 0,0 l/m 0 min 0 min 46 W/m 19,3 km/h (3 Bft) 100,00 %
04.07.2023 06:42 14,7 C 14,4 C 11,1 C 86 % 1012,7 hPa 0,0 l/m 0 min 0 min 50 W/m 19,3 km/h (3 Bft) 100,00 %
04.07.2023 06:44 14,7 C 14,4 C 11,1 C 86 % 1012,6 hPa 0,0 l/m 0 min 0 min 55 W/m 9,7 km/h (2 Bft) 100,00 %
04.07.2023 06:46 14,7 C 14,4 C 11,1 C 86 % 1012,7 hPa 0,0 l/m 0 min 0 min 62 W/m 22,5 km/h (4 Bft) 100,00 %
04.07.2023 06:48 14,8 C 14,4 C 11,1 C 86 % 1012,7 hPa 0,0 l/m 0 min 0 min 62 W/m 9,7 km/h (2 Bft) 100,00 %
04.07.2023 06:50 14,8 C 14,4 C 11,1 C 86 % 1012,8 hPa 0,0 l/m 0 min 0 min 58 W/m 19,3 km/h (3 Bft) 100,00 %
04.07.2023 06:52 14,8 C 14,4 C 11,1 C 86 % 1012,8 hPa 0,0 l/m 0 min 0 min 60 W/m 12,9 km/h (3 Bft) 97,87 %
04.07.2023 06:54 14,9 C 14,4 C 11,1 C 86 % 1012,8 hPa 0,0 l/m 0 min 0 min 62 W/m 6,4 km/h (2 Bft) 100,00 %
04.07.2023 06:56 14,9 C 14,4 C 11,1 C 86 % 1012,8 hPa 0,0 l/m 0 min 0 min 62 W/m 6,4 km/h (2 Bft) 100,00 %
04.07.2023 06:58 15,0 C 14,4 C 11,1 C 86 % 1012,8 hPa 0,0 l/m 0 min 0 min 61 W/m 12,9 km/h (3 Bft) 97,87 %
04.07.2023 07:00 15,0 C 14,4 C 11,1 C 86 % 1012,8 hPa 0,0 l/m 0 min 0 min 62 W/m 12,9 km/h (3 Bft) 100,00 %
04.07.2023 07:02 15,1 C 14,4 C 11,1 C 86 % 1012,8 hPa 0,0 l/m 0 min 0 min 58 W/m 12,9 km/h (3 Bft) 100,00 %
04.07.2023 07:04 15,1 C 14,4 C 11,7 C 86 % 1012,8 hPa 0,0 l/m 0 min 0 min 53 W/m 16,1 km/h (3 Bft) 100,00 %
04.07.2023 07:06 15,1 C 14,4 C 11,7 C 86 % 1012,7 hPa 0,0 l/m 0 min 0 min 51 W/m 6,4 km/h (2 Bft) 100,00 %
04.07.2023 07:08 15,1 C 14,4 C 11,7 C 86 % 1012,7 hPa 0,0 l/m 0 min 0 min 57 W/m 9,7 km/h (2 Bft) 97,87 %
04.07.2023 07:10 15,1 C 15,0 C 11,7 C 86 % 1012,8 hPa 0,0 l/m 0 min 0 min 70 W/m 6,4 km/h (2 Bft) 100,00 %
04.07.2023 07:12 15,1 C 15,0 C 11,7 C 86 % 1012,8 hPa 0,0 l/m 0 min 0 min 70 W/m 12,9 km/h (3 Bft) 100,00 %
04.07.2023 07:14 15,2 C 15,0 C 11,7 C 86 % 1012,8 hPa 0,0 l/m 0 min 0 min 57 W/m 12,9 km/h (3 Bft) 100,00 %
04.07.2023 07:16 15,2 C 15,0 C 11,7 C 85 % 1012,8 hPa 0,0 l/m 0 min 0 min 63 W/m 12,9 km/h (3 Bft) 97,87 %
04.07.2023 07:18 15,2 C 15,0 C 11,7 C 85 % 1012,8 hPa 0,0 l/m 0 min 0 min 76 W/m 16,1 km/h (3 Bft) 100,00 %
04.07.2023 07:20 15,2 C 15,0 C 11,7 C 85 % 1012,8 hPa 0,0 l/m 0 min 0 min 91 W/m 6,4 km/h (2 Bft) 97,87 %
04.07.2023 07:22 15,3 C 15,0 C 11,7 C 85 % 1012,9 hPa 0,0 l/m 0 min 0 min 90 W/m 22,5 km/h (4 Bft) 97,87 %
04.07.2023 07:24 15,3 C 15,0 C 11,7 C 85 % 1012,8 hPa 0,0 l/m 0 min 0 min 105 W/m 12,9 km/h (3 Bft) 97,87 %
04.07.2023 07:26 15,3 C 15,0 C 11,7 C 85 % 1012,9 hPa 0,0 l/m 0 min 0 min 123 W/m 9,7 km/h (2 Bft) 97,37 %
04.07.2023 07:28 15,4 C 15,0 C 11,7 C 85 % 1012,9 hPa 0,0 l/m 0 min 0 min 115 W/m 16,1 km/h (3 Bft) 95,74 %
04.07.2023 07:30 15,4 C 15,0 C 12,2 C 85 % 1012,9 hPa 0,0 l/m 0 min 0 min 94 W/m 19,3 km/h (3 Bft) 95,74 %
04.07.2023 07:32 15,4 C 15,0 C 11,7 C 85 % 1012,9 hPa 0,0 l/m 0 min 0 min 83 W/m 19,3 km/h (3 Bft) 92,31 %
04.07.2023 07:34 15,5 C 15,6 C 12,2 C 85 % 1012,9 hPa 0,0 l/m 0 min 0 min 73 W/m 16,1 km/h (3 Bft) 92,68 %
04.07.2023 07:36 15,5 C 15,0 C 12,2 C 85 % 1012,9 hPa 0,0 l/m 0 min 0 min 70 W/m 12,9 km/h (3 Bft) 93,62 %
04.07.2023 07:38 15,6 C 15,6 C 12,2 C 85 % 1012,9 hPa 0,0 l/m 0 min 0 min 84 W/m 16,1 km/h (3 Bft) 93,62 %
04.07.2023 07:40 15,6 C 15,6 C 12,2 C 85 % 1013,0 hPa 0,0 l/m 0 min 0 min 98 W/m 6,4 km/h (2 Bft) 93,62 %
04.07.2023 07:42 15,6 C 15,6 C 12,2 C 85 % 1012,9 hPa 0,0 l/m 0 min 0 min 93 W/m 6,4 km/h (2 Bft) 91,49 %
04.07.2023 07:44 15,6 C 15,6 C 12,2 C 85 % 1012,9 hPa 0,0 l/m 0 min 0 min 87 W/m 12,9 km/h (3 Bft) 95,74 %
04.07.2023 07:46 15,7 C 15,6 C 12,2 C 85 % 1013,0 hPa 0,0 l/m 0 min 0 min 96 W/m 12,9 km/h (3 Bft) 93,62 %
04.07.2023 07:48 15,7 C 15,6 C 12,2 C 85 % 1013,0 hPa 0,0 l/m 2 min 0 min 161 W/m 12,9 km/h (3 Bft) 92,31 %
04.07.2023 07:50 15,7 C 15,6 C 12,2 C 85 % 1012,9 hPa 0,0 l/m 2 min 0 min 186 W/m 12,9 km/h (3 Bft) 93,62 %
04.07.2023 07:52 15,7 C 15,6 C 12,2 C 85 % 1013,0 hPa 0,0 l/m 0 min 0 min 139 W/m 12,9 km/h (3 Bft) 93,62 %
04.07.2023 07:54 15,7 C 15,6 C 12,2 C 85 % 1012,9 hPa 0,0 l/m 0 min 0 min 113 W/m 12,9 km/h (3 Bft) 93,62 %
04.07.2023 07:56 15,8 C 15,6 C 12,2 C 85 % 1013,0 hPa 0,0 l/m 2 min 0 min 170 W/m 16,1 km/h (3 Bft) 91,49 %
04.07.2023 07:58 15,8 C 15,6 C 12,2 C 84 % 1012,9 hPa 0,0 l/m 0 min 0 min 142 W/m 19,3 km/h (3 Bft) 93,62 %
04.07.2023 08:00 15,8 C 15,6 C 12,2 C 84 % 1013,0 hPa 0,0 l/m 0 min 0 min 91 W/m 29,0 km/h (5 Bft) 91,49 %
04.07.2023 08:02 15,8 C 15,6 C 12,2 C 84 % 1013,1 hPa 0,0 l/m 0 min 0 min 138 W/m 19,3 km/h (3 Bft) 93,48 %
04.07.2023 08:04 15,8 C 15,6 C 12,2 C 84 % 1013,0 hPa 0,0 l/m 2 min 0 min 242 W/m 12,9 km/h (3 Bft) 95,35 %
04.07.2023 08:06 15,8 C 15,6 C 12,2 C 84 % 1013,0 hPa 0,0 l/m 2 min 0 min 253 W/m 9,7 km/h (2 Bft) 91,49 %
04.07.2023 08:08 15,8 C 16,1 C 12,2 C 84 % 1013,2 hPa 0,0 l/m 2 min 0 min 261 W/m 16,1 km/h (3 Bft) 95,74 %
04.07.2023 08:10 15,9 C 16,7 C 12,2 C 83 % 1013,1 hPa 0,0 l/m 2 min 0 min 268 W/m 22,5 km/h (4 Bft) 97,87 %
04.07.2023 08:12 15,9 C 16,7 C 12,2 C 83 % 1013,1 hPa 0,0 l/m 2 min 0 min 277 W/m 32,2 km/h (5 Bft) 97,87 %
04.07.2023 08:14 15,9 C 17,2 C 12,2 C 83 % 1013,1 hPa 0,0 l/m 2 min 0 min 285 W/m 22,5 km/h (4 Bft) 100,00 %
04.07.2023 08:16 16,0 C 16,7 C 12,2 C 83 % 1013,1 hPa 0,0 l/m 2 min 0 min 271 W/m 22,5 km/h (4 Bft) 100,00 %
04.07.2023 08:18 16,1 C 16,7 C 12,2 C 83 % 1013,2 hPa 0,0 l/m 2 min 0 min 256 W/m 25,7 km/h (4 Bft) 100,00 %
04.07.2023 08:20 16,1 C 16,7 C 12,2 C 83 % 1013,2 hPa 0,0 l/m 2 min 0 min 223 W/m 19,3 km/h (3 Bft) 97,87 %
04.07.2023 08:22 16,1 C 16,7 C 12,2 C 83 % 1013,2 hPa 0,0 l/m 0 min 0 min 128 W/m 12,9 km/h (3 Bft) 100,00 %
04.07.2023 08:24 16,1 C 16,7 C 12,2 C 83 % 1013,2 hPa 0,0 l/m 0 min 0 min 127 W/m 29,0 km/h (5 Bft) 97,87 %
04.07.2023 08:26 16,1 C 17,2 C 12,8 C 83 % 1013,2 hPa 0,0 l/m 0 min 0 min 127 W/m 16,1 km/h (3 Bft) 100,00 %
04.07.2023 08:28 16,2 C 17,2 C 12,8 C 83 % 1013,3 hPa 0,0 l/m 2 min 0 min 327 W/m 16,1 km/h (3 Bft) 100,00 %
04.07.2023 08:30 16,2 C 16,7 C 12,8 C 82 % 1013,3 hPa 0,0 l/m 0 min 0 min 178 W/m 16,1 km/h (3 Bft) 100,00 %
04.07.2023 08:32 16,2 C 16,7 C 12,8 C 82 % 1013,3 hPa 0,0 l/m 0 min 0 min 105 W/m 22,5 km/h (4 Bft) 100,00 %
04.07.2023 08:34 16,2 C 17,2 C 12,8 C 82 % 1013,5 hPa 0,0 l/m 2 min 0 min 273 W/m 12,9 km/h (3 Bft) 97,87 %
04.07.2023 08:36 16,3 C 18,9 C 13,3 C 82 % 1013,3 hPa 0,0 l/m 2 min 0 min 432 W/m 9,7 km/h (2 Bft) 100,00 %
04.07.2023 08:38 16,4 C 19,4 C 13,9 C 83 % 1013,3 hPa 0,0 l/m 2 min 0 min 397 W/m 22,5 km/h (4 Bft) 100,00 %
04.07.2023 08:40 16,5 C 18,3 C 13,9 C 81 % 1013,3 hPa 0,0 l/m 2 min 0 min 228 W/m 19,3 km/h (3 Bft) 100,00 %
04.07.2023 08:42 16,6 C 18,9 C 13,9 C 80 % 1013,4 hPa 0,0 l/m 2 min 0 min 245 W/m 19,3 km/h (3 Bft) 97,87 %
04.07.2023 08:44 16,6 C 20,0 C 14,4 C 80 % 1013,3 hPa 0,0 l/m 2 min 0 min 426 W/m 25,7 km/h (4 Bft) 100,00 %
04.07.2023 08:46 16,7 C 19,4 C 14,4 C 80 % 1013,4 hPa 0,0 l/m 2 min 0 min 410 W/m 16,1 km/h (3 Bft) 97,83 %
04.07.2023 08:48 16,8 C 20,0 C 14,4 C 79 % 1013,4 hPa 0,0 l/m 2 min 0 min 435 W/m 25,7 km/h (4 Bft) 100,00 %
04.07.2023 08:50 16,8 C 20,0 C 14,4 C 79 % 1013,4 hPa 0,0 l/m 2 min 0 min 439 W/m 29,0 km/h (5 Bft) 100,00 %
04.07.2023 08:52 16,8 C 20,6 C 15,0 C 79 % 1013,4 hPa 0,0 l/m 2 min 0 min 469 W/m 19,3 km/h (3 Bft) 100,00 %
04.07.2023 08:54 16,9 C 20,6 C 15,0 C 79 % 1013,4 hPa 0,0 l/m 2 min 0 min 455 W/m 16,1 km/h (3 Bft) 100,00 %
04.07.2023 08:56 17,1 C 20,6 C 15,0 C 79 % 1013,4 hPa 0,0 l/m 2 min 0 min 446 W/m 22,5 km/h (4 Bft) 100,00 %
04.07.2023 08:58 17,1 C 20,6 C 15,6 C 78 % 1013,3 hPa 0,0 l/m 2 min 0 min 444 W/m 25,7 km/h (4 Bft) 100,00 %
04.07.2023 09:00 17,1 C 21,1 C 15,6 C 78 % 1013,4 hPa 0,0 l/m 2 min 0 min 440 W/m 25,7 km/h (4 Bft) 100,00 %
04.07.2023 09:02 17,2 C 21,1 C 15,6 C 77 % 1013,4 hPa 0,0 l/m 2 min 0 min 451 W/m 16,1 km/h (3 Bft) 100,00 %
04.07.2023 09:04 17,3 C 21,1 C 15,6 C 77 % 1013,5 hPa 0,0 l/m 2 min 0 min 461 W/m 22,5 km/h (4 Bft) 100,00 %
04.07.2023 09:06 17,4 C 20,6 C 15,6 C 76 % 1013,5 hPa 0,0 l/m 2 min 0 min 444 W/m 19,3 km/h (3 Bft) 100,00 %
04.07.2023 09:08 17,4 C 20,6 C 15,6 C 76 % 1013,5 hPa 0,0 l/m 2 min 0 min 484 W/m 22,5 km/h (4 Bft) 100,00 %
04.07.2023 09:10 17,4 C 21,1 C 15,6 C 75 % 1013,5 hPa 0,0 l/m 2 min 0 min 518 W/m 29,0 km/h (5 Bft) 100,00 %
04.07.2023 09:12 17,5 C 21,1 C 16,1 C 75 % 1013,5 hPa 0,0 l/m 2 min 0 min 558 W/m 19,3 km/h (3 Bft) 100,00 %
04.07.2023 09:14 17,6 C 20,0 C 15,6 C 75 % 1013,7 hPa 0,0 l/m 2 min 0 min 486 W/m 25,7 km/h (4 Bft) 100,00 %
04.07.2023 09:16 17,6 C 18,3 C 15,0 C 74 % 1013,6 hPa 0,0 l/m 0 min 0 min 159 W/m 19,3 km/h (3 Bft) 100,00 %
04.07.2023 09:18 17,5 C 18,9 C 15,0 C 74 % 1013,5 hPa 0,0 l/m 0 min 0 min 216 W/m 19,3 km/h (3 Bft) 97,87 %
04.07.2023 09:20 17,4 C 18,3 C 14,4 C 74 % 1013,6 hPa 0,0 l/m 0 min 0 min 236 W/m 19,3 km/h (3 Bft) 100,00 %
04.07.2023 09:22 17,5 C 20,0 C 15,6 C 74 % 1013,5 hPa 0,0 l/m 2 min 0 min 458 W/m 12,9 km/h (3 Bft) 100,00 %
04.07.2023 09:24 17,6 C 19,4 C 15,6 C 74 % 1013,6 hPa 0,0 l/m 2 min 0 min 587 W/m 16,1 km/h (3 Bft) 100,00 %
04.07.2023 09:26 17,6 C 19,4 C 15,6 C 74 % 1013,6 hPa 0,0 l/m 2 min 0 min 336 W/m 12,9 km/h (3 Bft) 100,00 %
04.07.2023 09:28 17,7 C 18,9 C 15,6 C 75 % 1013,6 hPa 0,0 l/m 0 min 0 min 161 W/m 19,3 km/h (3 Bft) 100,00 %
04.07.2023 09:30 17,7 C 18,3 C 15,0 C 75 % 1013,7 hPa 0,0 l/m 0 min 0 min 181 W/m 32,2 km/h (5 Bft) 97,87 %
04.07.2023 09:32 17,7 C 19,4 C 15,6 C 75 % 1013,7 hPa 0,0 l/m 2 min 0 min 368 W/m 19,3 km/h (3 Bft) 97,87 %
04.07.2023 09:34 17,7 C 19,4 C 15,6 C 74 % 1013,7 hPa 0,0 l/m 2 min 0 min 548 W/m 12,9 km/h (3 Bft) 97,87 %
04.07.2023 09:36 17,8 C 20,6 C 16,1 C 75 % 1013,7 hPa 0,0 l/m 2 min 0 min 551 W/m 12,9 km/h (3 Bft) 97,87 %
04.07.2023 09:38 18,0 C 21,7 C 16,7 C 75 % 1013,6 hPa 0,0 l/m 2 min 0 min 573 W/m 16,1 km/h (3 Bft) 97,87 %
04.07.2023 09:40 18,2 C 21,1 C 16,7 C 74 % 1013,7 hPa 0,0 l/m 2 min 0 min 511 W/m 22,5 km/h (4 Bft) 97,87 %
04.07.2023 09:42 18,1 C 20,0 C 16,1 C 72 % 1013,7 hPa 0,0 l/m 0 min 0 min 283 W/m 25,7 km/h (4 Bft) 97,83 %
04.07.2023 09:44 18,1 C 18,9 C 15,6 C 72 % 1013,8 hPa 0,0 l/m 0 min 0 min 268 W/m 25,7 km/h (4 Bft) 95,74 %
04.07.2023 09:46 18,1 C 18,9 C 15,6 C 72 % 1013,7 hPa 0,0 l/m 2 min 0 min 351 W/m 16,1 km/h (3 Bft) 97,87 %
04.07.2023 09:48 18,1 C 19,4 C 16,1 C 73 % 1013,7 hPa 0,0 l/m 2 min 0 min 415 W/m 16,1 km/h (3 Bft) 97,87 %
04.07.2023 09:50 18,1 C 19,4 C 16,1 C 73 % 1013,7 hPa 0,0 l/m 0 min 0 min 267 W/m 19,3 km/h (3 Bft) 97,87 %
04.07.2023 09:52 18,1 C 19,4 C 16,1 C 73 % 1013,7 hPa 0,0 l/m 2 min 0 min 586 W/m 16,1 km/h (3 Bft) 97,87 %
04.07.2023 09:54 18,1 C 20,0 C 16,7 C 72 % 1013,8 hPa 0,0 l/m 2 min 0 min 606 W/m 12,9 km/h (3 Bft) 97,87 %
04.07.2023 09:56 18,2 C 20,6 C 16,7 C 72 % 1013,8 hPa 0,0 l/m 2 min 0 min 554 W/m 16,1 km/h (3 Bft) 97,87 %
04.07.2023 09:58 18,2 C 19,4 C 16,1 C 70 % 1013,9 hPa 0,0 l/m 0 min 0 min 246 W/m 16,1 km/h (3 Bft) 97,83 %
04.07.2023 10:00 18,1 C 19,4 C 16,1 C 70 % 1013,9 hPa 0,0 l/m 0 min 0 min 146 W/m 16,1 km/h (3 Bft) 95,74 %
04.07.2023 10:02 18,2 C 20,0 C 16,7 C 71 % 1013,8 hPa 0,0 l/m 0 min 0 min 224 W/m 12,9 km/h (3 Bft) 95,74 %
04.07.2023 10:04 18,2 C 20,6 C 17,2 C 71 % 1013,8 hPa 0,0 l/m 2 min 0 min 619 W/m 16,1 km/h (3 Bft) 95,83 %
04.07.2023 10:06 18,3 C 21,1 C 17,8 C 71 % 1013,7 hPa 0,0 l/m 2 min 0 min 635 W/m 25,7 km/h (4 Bft) 93,62 %
04.07.2023 10:08 18,4 C 21,7 C 18,3 C 71 % 1013,6 hPa 0,0 l/m 2 min 0 min 652 W/m 16,1 km/h (3 Bft) 95,74 %
04.07.2023 10:10 18,6 C 21,7 C 18,3 C 71 % 1013,5 hPa 0,0 l/m 2 min 0 min 649 W/m 12,9 km/h (3 Bft) 97,87 %
04.07.2023 10:12 18,7 C 21,7 C 18,9 C 70 % 1013,6 hPa 0,0 l/m 2 min 0 min 645 W/m 25,7 km/h (4 Bft) 97,83 %
04.07.2023 10:14 18,8 C 21,7 C 18,9 C 68 % 1013,7 hPa 0,0 l/m 2 min 0 min 650 W/m 29,0 km/h (5 Bft) 97,87 %
04.07.2023 10:16 18,8 C 21,7 C 18,9 C 67 % 1013,7 hPa 0,0 l/m 2 min 0 min 632 W/m 12,9 km/h (3 Bft) 97,87 %
04.07.2023 10:18 18,8 C 21,1 C 18,9 C 68 % 1013,6 hPa 0,0 l/m 2 min 0 min 585 W/m 22,5 km/h (4 Bft) 93,62 %
04.07.2023 10:20 18,8 C 20,6 C 18,3 C 67 % 1013,7 hPa 0,0 l/m 2 min 0 min 522 W/m 35,4 km/h (5 Bft) 93,62 %
04.07.2023 10:22 18,8 C 20,0 C 17,8 C 67 % 1013,8 hPa 0,0 l/m 2 min 0 min 465 W/m 35,4 km/h (5 Bft) 97,87 %
04.07.2023 10:24 18,8 C 19,4 C 17,2 C 66 % 1013,6 hPa 0,0 l/m 2 min 0 min 367 W/m 12,9 km/h (3 Bft) 95,74 %
04.07.2023 10:26 18,7 C 19,4 C 16,7 C 66 % 1013,6 hPa 0,0 l/m 2 min 0 min 379 W/m 16,1 km/h (3 Bft) 97,83 %
04.07.2023 10:28 18,7 C 18,9 C 16,7 C 66 % 1013,6 hPa 0,0 l/m 2 min 0 min 398 W/m 32,2 km/h (5 Bft) 97,87 %
04.07.2023 10:30 18,7 C 19,4 C 16,7 C 67 % 1013,7 hPa 0,0 l/m 2 min 0 min 412 W/m 19,3 km/h (3 Bft) 97,87 %
04.07.2023 10:32 18,7 C 20,0 C 17,2 C 66 % 1013,6 hPa 0,0 l/m 2 min 0 min 623 W/m 19,3 km/h (3 Bft) 97,87 %
04.07.2023 10:34 18,8 C 20,0 C 17,8 C 66 % 1013,7 hPa 0,0 l/m 2 min 0 min 718 W/m 25,7 km/h (4 Bft) 97,87 %
04.07.2023 10:36 18,9 C 20,6 C 18,3 C 66 % 1013,7 hPa 0,0 l/m 2 min 0 min 690 W/m 12,9 km/h (3 Bft) 95,74 %
04.07.2023 10:38 19,1 C 20,6 C 18,9 C 66 % 1013,6 hPa 0,0 l/m 2 min 0 min 686 W/m 25,7 km/h (4 Bft) 97,87 %
04.07.2023 10:40 19,1 C 20,6 C 18,9 C 66 % 1013,6 hPa 0,0 l/m 2 min 0 min 692 W/m 22,5 km/h (4 Bft) 97,83 %
04.07.2023 10:42 19,2 C 20,6 C 19,4 C 66 % 1013,6 hPa 0,0 l/m 2 min 0 min 690 W/m 29,0 km/h (5 Bft) 100,00 %
04.07.2023 10:44 19,2 C 20,6 C 20,0 C 66 % 1013,6 hPa 0,0 l/m 2 min 0 min 665 W/m 22,5 km/h (4 Bft) 100,00 %
04.07.2023 10:46 19,3 C 20,0 C 19,4 C 65 % 1013,6 hPa 0,0 l/m 2 min 0 min 702 W/m 22,5 km/h (4 Bft) 100,00 %
04.07.2023 10:48 19,3 C 20,6 C 20,0 C 65 % 1013,6 hPa 0,0 l/m 2 min 0 min 735 W/m 25,7 km/h (4 Bft) 100,00 %
04.07.2023 10:50 19,4 C 20,6 C 19,4 C 65 % 1013,6 hPa 0,0 l/m 2 min 0 min 789 W/m 22,5 km/h (4 Bft) 100,00 %
04.07.2023 10:52 19,4 C 20,6 C 20,0 C 65 % 1013,6 hPa 0,0 l/m 2 min 0 min 775 W/m 19,3 km/h (3 Bft) 97,87 %
04.07.2023 10:54 19,6 C 21,1 C 20,0 C 65 % 1013,6 hPa 0,0 l/m 2 min 0 min 799 W/m 12,9 km/h (3 Bft) 97,87 %
04.07.2023 10:56 19,8 C 21,7 C 20,0 C 65 % 1013,6 hPa 0,0 l/m 2 min 0 min 800 W/m 22,5 km/h (4 Bft) 100,00 %
04.07.2023 10:58 19,8 C 21,1 C 18,9 C 63 % 1013,7 hPa 0,0 l/m 2 min 0 min 737 W/m 35,4 km/h (5 Bft) 100,00 %
04.07.2023 11:00 19,8 C 21,1 C 18,9 C 62 % 1013,8 hPa 0,0 l/m 2 min 0 min 754 W/m 25,7 km/h (4 Bft) 100,00 %
04.07.2023 11:02 19,8 C 21,1 C 18,3 C 62 % 1014,1 hPa 0,0 l/m 2 min 0 min 783 W/m 19,3 km/h (3 Bft) 100,00 %
04.07.2023 11:04 19,8 C 21,1 C 18,3 C 63 % 1014,0 hPa 0,0 l/m 2 min 0 min 798 W/m 19,3 km/h (3 Bft) 97,92 %
04.07.2023 11:06 20,0 C 21,7 C 18,3 C 63 % 1014,1 hPa 0,0 l/m 2 min 0 min 767 W/m 16,1 km/h (3 Bft) 97,87 %
04.07.2023 11:08 20,1 C 21,7 C 18,3 C 63 % 1014,2 hPa 0,0 l/m 2 min 0 min 756 W/m 16,1 km/h (3 Bft) 97,87 %
04.07.2023 11:10 20,1 C 21,7 C 17,8 C 63 % 1014,0 hPa 0,0 l/m 2 min 0 min 761 W/m 19,3 km/h (3 Bft) 93,48 %
04.07.2023 11:12 20,2 C 21,7 C 17,8 C 63 % 1014,1 hPa 0,0 l/m 2 min 0 min 776 W/m 35,4 km/h (5 Bft) 100,00 %
04.07.2023 11:14 20,2 C 22,2 C 17,8 C 62 % 1014,1 hPa 0,0 l/m 2 min 0 min 825 W/m 19,3 km/h (3 Bft) 100,00 %
04.07.2023 11:16 20,2 C 22,2 C 18,3 C 62 % 1014,1 hPa 0,0 l/m 2 min 0 min 829 W/m 32,2 km/h (5 Bft) 100,00 %
04.07.2023 11:18 20,2 C 21,7 C 17,8 C 62 % 1014,0 hPa 0,0 l/m 2 min 0 min 741 W/m 16,1 km/h (3 Bft) 97,87 %
04.07.2023 11:20 20,2 C 21,1 C 17,8 C 63 % 1014,0 hPa 0,0 l/m 2 min 0 min 430 W/m 19,3 km/h (3 Bft) 100,00 %
04.07.2023 11:22 20,1 C 21,7 C 18,3 C 63 % 1014,0 hPa 0,0 l/m 2 min 0 min 680 W/m 25,7 km/h (4 Bft) 100,00 %
04.07.2023 11:24 20,1 C 21,7 C 18,3 C 62 % 1014,0 hPa 0,0 l/m 2 min 0 min 396 W/m 19,3 km/h (3 Bft) 100,00 %
04.07.2023 11:26 20,2 C 21,7 C 18,9 C 62 % 1013,8 hPa 0,0 l/m 2 min 0 min 701 W/m 16,1 km/h (3 Bft) 100,00 %
04.07.2023 11:28 20,2 C 22,2 C 18,9 C 61 % 1013,9 hPa 0,0 l/m 2 min 0 min 657 W/m 16,1 km/h (3 Bft) 97,87 %
04.07.2023 11:30 20,3 C 22,2 C 19,4 C 61 % 1013,8 hPa 0,0 l/m 2 min 0 min 736 W/m 16,1 km/h (3 Bft) 100,00 %
04.07.2023 11:32 20,4 C 22,8 C 20,0 C 62 % 1013,8 hPa 0,0 l/m 2 min 0 min 786 W/m 12,9 km/h (3 Bft) 100,00 %
04.07.2023 11:34 20,6 C 22,8 C 20,6 C 60 % 1013,9 hPa 0,0 l/m 2 min 0 min 802 W/m 19,3 km/h (3 Bft) 97,87 %
04.07.2023 11:36 20,5 C 22,8 C 20,0 C 59 % 1014,0 hPa 0,0 l/m 2 min 0 min 792 W/m 29,0 km/h (5 Bft) 100,00 %
04.07.2023 11:38 20,5 C 22,8 C 20,6 C 60 % 1013,9 hPa 0,0 l/m 2 min 0 min 790 W/m 19,3 km/h (3 Bft) 97,83 %
04.07.2023 11:40 20,5 C 22,8 C 20,0 C 59 % 1013,9 hPa 0,0 l/m 2 min 0 min 797 W/m 29,0 km/h (5 Bft) 95,74 %
04.07.2023 11:42 20,5 C 22,8 C 20,6 C 59 % 1013,9 hPa 0,0 l/m 2 min 0 min 794 W/m 25,7 km/h (4 Bft) 95,74 %
04.07.2023 11:44 20,5 C 22,8 C 21,1 C 58 % 1013,9 hPa 0,0 l/m 2 min 0 min 809 W/m 29,0 km/h (5 Bft) 95,74 %
04.07.2023 11:46 20,5 C 22,8 C 20,6 C 58 % 1014,0 hPa 0,0 l/m 2 min 0 min 812 W/m 25,7 km/h (4 Bft) 95,74 %
04.07.2023 11:48 20,5 C 23,3 C 21,7 C 59 % 1013,9 hPa 0,0 l/m 2 min 0 min 823 W/m 16,1 km/h (3 Bft) 93,62 %
04.07.2023 11:50 20,6 C 23,3 C 21,1 C 59 % 1014,0 hPa 0,0 l/m 2 min 0 min 824 W/m 16,1 km/h (3 Bft) 95,74 %
04.07.2023 11:52 20,7 C 23,3 C 21,1 C 59 % 1014,0 hPa 0,0 l/m 2 min 0 min 817 W/m 19,3 km/h (3 Bft) 93,48 %
04.07.2023 11:54 20,8 C 23,3 C 21,1 C 60 % 1014,0 hPa 0,0 l/m 2 min 0 min 772 W/m 16,1 km/h (3 Bft) 95,74 %
04.07.2023 11:56 20,8 C 23,3 C 20,6 C 58 % 1014,0 hPa 0,0 l/m 2 min 0 min 809 W/m 9,7 km/h (2 Bft) 95,74 %
04.07.2023 11:58 20,8 C 23,3 C 20,6 C 57 % 1014,0 hPa 0,0 l/m 2 min 0 min 820 W/m 25,7 km/h (4 Bft) 95,74 %
04.07.2023 12:00 20,8 C 23,3 C 20,0 C 57 % 1014,1 hPa 0,0 l/m 2 min 0 min 836 W/m 22,5 km/h (4 Bft) 93,62 %
04.07.2023 12:02 20,8 C 23,3 C 20,0 C 58 % 1014,1 hPa 0,0 l/m 2 min 0 min 831 W/m 35,4 km/h (5 Bft) 95,74 %
04.07.2023 12:04 20,9 C 23,9 C 20,0 C 58 % 1014,1 hPa 0,0 l/m 2 min 0 min 821 W/m 29,0 km/h (5 Bft) 91,89 %
04.07.2023 12:07 20,9 C 23,3 C 20,0 C 57 % 1014,1 hPa 0,0 l/m 3 min 0 min 854 W/m 25,7 km/h (4 Bft) 91,89 %
04.07.2023 12:08 20,9 C 23,9 C 20,0 C 57 % 1014,1 hPa 0,0 l/m 1 min 0 min 838 W/m 25,7 km/h (4 Bft) 96,08 %
04.07.2023 12:10 21,0 C 23,9 C 20,6 C 57 % 1014,0 hPa 0,0 l/m 2 min 0 min 853 W/m 19,3 km/h (3 Bft) 97,87 %
04.07.2023 12:12 21,1 C 23,3 C 20,0 C 56 % 1014,0 hPa 0,0 l/m 2 min 0 min 858 W/m 25,7 km/h (4 Bft) 93,62 %
04.07.2023 12:14 21,1 C 23,9 C 20,6 C 57 % 1014,1 hPa 0,0 l/m 2 min 0 min 888 W/m 19,3 km/h (3 Bft) 97,87 %
04.07.2023 12:16 21,1 C 23,9 C 21,1 C 58 % 1014,0 hPa 0,0 l/m 2 min 0 min 834 W/m 22,5 km/h (4 Bft) 97,87 %
04.07.2023 12:18 21,2 C 24,4 C 21,7 C 58 % 1014,0 hPa 0,0 l/m 2 min 0 min 814 W/m 16,1 km/h (3 Bft) 95,74 %
04.07.2023 12:20 21,3 C 24,4 C 22,8 C 57 % 1014,0 hPa 0,0 l/m 2 min 0 min 876 W/m 19,3 km/h (3 Bft) 95,65 %
04.07.2023 12:22 21,4 C 24,4 C 23,3 C 57 % 1014,1 hPa 0,0 l/m 2 min 0 min 905 W/m 22,5 km/h (4 Bft) 95,74 %
04.07.2023 12:24 21,4 C 24,4 C 23,9 C 56 % 1014,1 hPa 0,0 l/m 2 min 0 min 872 W/m 25,7 km/h (4 Bft) 95,74 %
04.07.2023 12:26 21,4 C 25,0 C 24,4 C 57 % 1014,0 hPa 0,0 l/m 2 min 0 min 889 W/m 16,1 km/h (3 Bft) 95,92 %
04.07.2023 12:28 21,6 C 25,0 C 25,0 C 57 % 1014,0 hPa 0,0 l/m 2 min 0 min 879 W/m 22,5 km/h (4 Bft) 93,62 %
04.07.2023 12:30 21,6 C 23,9 C 23,9 C 56 % 1014,1 hPa 0,0 l/m 2 min 0 min 861 W/m 22,5 km/h (4 Bft) 95,74 %
04.07.2023 12:32 21,7 C 22,8 C 22,2 C 57 % 1014,1 hPa 0,0 l/m 2 min 0 min 472 W/m 12,9 km/h (3 Bft) 95,65 %
04.07.2023 12:34 21,6 C 22,8 C 21,7 C 56 % 1014,0 hPa 0,0 l/m 2 min 0 min 444 W/m 16,1 km/h (3 Bft) 95,74 %
04.07.2023 12:36 21,4 C 22,2 C 20,6 C 55 % 1014,0 hPa 0,0 l/m 2 min 0 min 502 W/m 16,1 km/h (3 Bft) 95,74 %
04.07.2023 12:38 21,4 C 22,2 C 20,6 C 56 % 1014,0 hPa 0,0 l/m 2 min 0 min 512 W/m 12,9 km/h (3 Bft) 95,74 %
04.07.2023 12:40 21,3 C 22,8 C 20,6 C 56 % 1014,0 hPa 0,0 l/m 2 min 0 min 585 W/m 19,3 km/h (3 Bft) 91,49 %
04.07.2023 12:42 21,2 C 22,2 C 20,6 C 55 % 1014,0 hPa 0,0 l/m 2 min 0 min 573 W/m 32,2 km/h (5 Bft) 95,74 %
04.07.2023 12:44 21,2 C 22,2 C 20,0 C 56 % 1014,0 hPa 0,0 l/m 2 min 0 min 417 W/m 22,5 km/h (4 Bft) 95,74 %
04.07.2023 12:46 21,1 C 22,8 C 20,6 C 56 % 1014,0 hPa 0,0 l/m 2 min 0 min 652 W/m 16,1 km/h (3 Bft) 95,65 %
04.07.2023 12:48 21,1 C 23,3 C 21,7 C 56 % 1014,0 hPa 0,0 l/m 2 min 0 min 842 W/m 16,1 km/h (3 Bft) 93,62 %
04.07.2023 12:50 21,3 C 23,9 C 22,2 C 56 % 1014,0 hPa 0,0 l/m 2 min 0 min 861 W/m 19,3 km/h (3 Bft) 95,74 %
04.07.2023 12:52 21,4 C 23,9 C 22,2 C 57 % 1013,9 hPa 0,0 l/m 2 min 0 min 805 W/m 12,9 km/h (3 Bft) 93,62 %
04.07.2023 12:54 21,5 C 23,9 C 22,2 C 57 % 1013,9 hPa 0,0 l/m 2 min 0 min 764 W/m 25,7 km/h (4 Bft) 95,74 %
04.07.2023 12:56 21,6 C 24,4 C 22,2 C 57 % 1013,9 hPa 0,0 l/m 2 min 0 min 711 W/m 12,9 km/h (3 Bft) 95,74 %
04.07.2023 12:58 21,7 C 25,0 C 22,2 C 58 % 1013,9 hPa 0,0 l/m 2 min 0 min 743 W/m 12,9 km/h (3 Bft) 95,74 %
04.07.2023 13:00 21,9 C 24,4 C 22,2 C 58 % 1013,9 hPa 0,0 l/m 2 min 0 min 627 W/m 16,1 km/h (3 Bft) 95,74 %
04.07.2023 13:02 22,0 C 23,9 C 21,7 C 58 % 1013,9 hPa 0,0 l/m 0 min 0 min 360 W/m 16,1 km/h (3 Bft) 95,65 %
04.07.2023 13:04 21,9 C 23,3 C 21,1 C 58 % 1013,9 hPa 0,0 l/m 2 min 0 min 435 W/m 19,3 km/h (3 Bft) 97,87 %
04.07.2023 13:06 21,8 C 23,3 C 20,6 C 57 % 1013,9 hPa 0,0 l/m 2 min 0 min 673 W/m 22,5 km/h (4 Bft) 97,87 %
04.07.2023 13:08 21,8 C 23,3 C 20,6 C 58 % 1013,9 hPa 0,0 l/m 2 min 0 min 663 W/m 19,3 km/h (3 Bft) 97,87 %
04.07.2023 13:10 21,8 C 22,8 C 20,0 C 57 % 1014,0 hPa 0,0 l/m 2 min 0 min 440 W/m 25,7 km/h (4 Bft) 97,87 %
04.07.2023 13:12 21,7 C 22,8 C 19,4 C 57 % 1014,0 hPa 0,0 l/m 0 min 0 min 385 W/m 32,2 km/h (5 Bft) 100,00 %
04.07.2023 13:14 21,6 C 23,3 C 19,4 C 56 % 1014,0 hPa 0,0 l/m 2 min 0 min 426 W/m 22,5 km/h (4 Bft) 100,00 %
04.07.2023 13:16 21,7 C 24,4 C 19,4 C 57 % 1013,9 hPa 0,0 l/m 2 min 0 min 729 W/m 25,7 km/h (4 Bft) 97,87 %
04.07.2023 13:18 21,7 C 23,9 C 19,4 C 58 % 1013,9 hPa 0,0 l/m 2 min 0 min 837 W/m 29,0 km/h (5 Bft) 100,00 %
04.07.2023 13:20 21,8 C 24,4 C 20,0 C 58 % 1013,9 hPa 0,0 l/m 2 min 0 min 870 W/m 25,7 km/h (4 Bft) 97,87 %
04.07.2023 13:22 21,9 C 25,0 C 20,0 C 57 % 1013,9 hPa 0,0 l/m 2 min 0 min 921 W/m 25,7 km/h (4 Bft) 100,00 %
04.07.2023 13:24 22,1 C 25,0 C 20,0 C 58 % 1013,8 hPa 0,0 l/m 2 min 0 min 924 W/m 16,1 km/h (3 Bft) 93,62 %
04.07.2023 13:26 22,1 C 24,4 C 20,0 C 57 % 1013,9 hPa 0,0 l/m 2 min 0 min 423 W/m 25,7 km/h (4 Bft) 97,87 %
04.07.2023 13:28 22,1 C 24,4 C 20,0 C 58 % 1013,9 hPa 0,0 l/m 2 min 0 min 655 W/m 16,1 km/h (3 Bft) 100,00 %
04.07.2023 13:30 22,2 C 23,9 C 20,0 C 58 % 1013,9 hPa 0,0 l/m 2 min 0 min 650 W/m 22,5 km/h (4 Bft) 100,00 %
04.07.2023 13:32 22,1 C 22,8 C 19,4 C 57 % 1014,0 hPa 0,0 l/m 2 min 0 min 456 W/m 22,5 km/h (4 Bft) 100,00 %
04.07.2023 13:34 22,0 C 23,9 C 19,4 C 57 % 1013,9 hPa 0,0 l/m 0 min 0 min 356 W/m 22,5 km/h (4 Bft) 100,00 %
04.07.2023 13:36 21,9 C 24,4 C 20,0 C 57 % 1013,9 hPa 0,0 l/m 0 min 0 min 360 W/m 41,8 km/h (6 Bft) 98,00 %
04.07.2023 13:38 21,9 C 23,9 C 19,4 C 57 % 1013,9 hPa 0,0 l/m 0 min 0 min 388 W/m 25,7 km/h (4 Bft) 100,00 %
04.07.2023 13:40 21,9 C 24,4 C 20,6 C 57 % 1013,8 hPa 0,0 l/m 2 min 0 min 732 W/m 25,7 km/h (4 Bft) 100,00 %
04.07.2023 13:42 22,1 C 25,6 C 21,1 C 58 % 1013,8 hPa 0,0 l/m 2 min 0 min 863 W/m 29,0 km/h (5 Bft) 97,37 %
04.07.2023 13:44 22,3 C 25,0 C 21,1 C 58 % 1013,7 hPa 0,0 l/m 2 min 0 min 868 W/m 16,1 km/h (3 Bft) 97,92 %
04.07.2023 13:46 22,4 C 25,6 C 21,7 C 57 % 1013,7 hPa 0,0 l/m 2 min 0 min 886 W/m 29,0 km/h (5 Bft) 97,83 %
04.07.2023 13:48 22,6 C 26,1 C 22,8 C 56 % 1013,9 hPa 0,0 l/m 2 min 0 min 918 W/m 22,5 km/h (4 Bft) 97,87 %
04.07.2023 13:50 22,7 C 26,1 C 23,9 C 56 % 1013,9 hPa 0,0 l/m 2 min 0 min 865 W/m 25,7 km/h (4 Bft) 97,87 %
04.07.2023 13:52 22,8 C 26,1 C 23,9 C 55 % 1013,9 hPa 0,0 l/m 2 min 0 min 880 W/m 25,7 km/h (4 Bft) 97,87 %
04.07.2023 13:54 22,8 C 26,1 C 24,4 C 55 % 1013,9 hPa 0,0 l/m 2 min 0 min 929 W/m 16,1 km/h (3 Bft) 97,87 %
04.07.2023 13:56 22,8 C 25,6 C 24,4 C 56 % 1013,9 hPa 0,0 l/m 2 min 0 min 890 W/m 32,2 km/h (5 Bft) 95,74 %
04.07.2023 13:58 22,9 C 25,0 C 23,9 C 56 % 1013,7 hPa 0,0 l/m 2 min 0 min 460 W/m 25,7 km/h (4 Bft) 95,74 %
04.07.2023 14:00 22,8 C 24,4 C 22,2 C 55 % 1013,8 hPa 0,0 l/m 0 min 0 min 332 W/m 38,6 km/h (5 Bft) 97,87 %
04.07.2023 14:02 22,7 C 25,0 C 21,7 C 55 % 1013,7 hPa 0,0 l/m 0 min 0 min 355 W/m 38,6 km/h (5 Bft) 95,74 %
04.07.2023 14:04 22,6 C 23,9 C 21,1 C 55 % 1013,9 hPa 0,0 l/m 0 min 0 min 355 W/m 25,7 km/h (4 Bft) 97,92 %
04.07.2023 14:06 22,5 C 24,4 C 20,6 C 55 % 1013,8 hPa 0,0 l/m 0 min 0 min 355 W/m 22,5 km/h (4 Bft) 97,83 %
04.07.2023 14:08 22,4 C 24,4 C 20,6 C 56 % 1013,8 hPa 0,0 l/m 2 min 0 min 449 W/m 29,0 km/h (5 Bft) 97,87 %
04.07.2023 14:10 22,6 C 25,6 C 20,6 C 57 % 1013,8 hPa 0,0 l/m 2 min 0 min 862 W/m 19,3 km/h (3 Bft) 95,74 %
04.07.2023 14:12 22,7 C 25,0 C 20,6 C 56 % 1013,9 hPa 0,0 l/m 2 min 0 min 884 W/m 25,7 km/h (4 Bft) 95,74 %
04.07.2023 14:14 22,7 C 24,4 C 20,0 C 56 % 1013,8 hPa 0,0 l/m 2 min 0 min 911 W/m 25,7 km/h (4 Bft) 100,00 %
04.07.2023 14:16 22,7 C 23,9 C 20,0 C 55 % 1013,8 hPa 0,0 l/m 2 min 0 min 490 W/m 16,1 km/h (3 Bft) 95,74 %
04.07.2023 14:18 22,7 C 23,9 C 20,0 C 56 % 1013,8 hPa 0,0 l/m 2 min 0 min 538 W/m 19,3 km/h (3 Bft) 100,00 %
04.07.2023 14:20 22,8 C 25,0 C 20,0 C 56 % 1013,8 hPa 0,0 l/m 2 min 0 min 790 W/m 16,1 km/h (3 Bft) 97,87 %
04.07.2023 14:22 22,9 C 25,6 C 20,0 C 57 % 1013,7 hPa 0,0 l/m 2 min 0 min 875 W/m 12,9 km/h (3 Bft) 100,00 %
04.07.2023 14:24 23,1 C 26,1 C 20,0 C 57 % 1013,8 hPa 0,0 l/m 2 min 0 min 824 W/m 16,1 km/h (3 Bft) 100,00 %
04.07.2023 14:26 23,1 C 25,0 C 20,0 C 56 % 1013,9 hPa 0,0 l/m 2 min 0 min 756 W/m 16,1 km/h (3 Bft) 100,00 %
04.07.2023 14:28 23,1 C 24,4 C 19,4 C 56 % 1013,6 hPa 0,0 l/m 0 min 0 min 396 W/m 12,9 km/h (3 Bft) 100,00 %
04.07.2023 14:30 23,0 C 23,9 C 19,4 C 56 % 1013,9 hPa 0,0 l/m 0 min 0 min 413 W/m 19,3 km/h (3 Bft) 100,00 %
04.07.2023 14:32 22,9 C 23,3 C 19,4 C 56 % 1013,7 hPa 0,0 l/m 0 min 0 min 362 W/m 29,0 km/h (5 Bft) 100,00 %
04.07.2023 14:34 22,8 C 23,3 C 19,4 C 55 % 1013,7 hPa 0,0 l/m 0 min 0 min 376 W/m 22,5 km/h (4 Bft) 100,00 %
04.07.2023 14:36 22,8 C 24,4 C 19,4 C 55 % 1013,7 hPa 0,0 l/m 2 min 0 min 603 W/m 22,5 km/h (4 Bft) 100,00 %
04.07.2023 14:38 22,7 C 24,4 C 19,4 C 55 % 1014,2 hPa 0,0 l/m 2 min 0 min 788 W/m 35,4 km/h (5 Bft) 100,00 %
04.07.2023 14:40 22,7 C 23,9 C 19,4 C 55 % 1013,8 hPa 0,0 l/m 2 min 0 min 461 W/m 38,6 km/h (5 Bft) 100,00 %
04.07.2023 14:42 22,7 C 23,3 C 19,4 C 55 % 1013,7 hPa 0,0 l/m 0 min 0 min 398 W/m 19,3 km/h (3 Bft) 97,87 %
04.07.2023 14:44 22,6 C 22,8 C 19,4 C 56 % 1013,8 hPa 0,0 l/m 0 min 0 min 342 W/m 22,5 km/h (4 Bft) 100,00 %
04.07.2023 14:46 22,5 C 22,8 C 18,9 C 56 % 1013,7 hPa 0,0 l/m 0 min 0 min 388 W/m 19,3 km/h (3 Bft) 100,00 %
04.07.2023 14:48 22,4 C 22,8 C 18,9 C 56 % 1013,9 hPa 0,0 l/m 0 min 0 min 378 W/m 19,3 km/h (3 Bft) 100,00 %
04.07.2023 14:50 22,3 C 22,2 C 18,9 C 56 % 1013,7 hPa 0,0 l/m 0 min 0 min 404 W/m 19,3 km/h (3 Bft) 100,00 %
04.07.2023 14:52 22,3 C 23,9 C 18,9 C 57 % 1013,6 hPa 0,0 l/m 2 min 0 min 623 W/m 19,3 km/h (3 Bft) 100,00 %
04.07.2023 14:54 22,3 C 25,0 C 19,4 C 57 % 1013,6 hPa 0,0 l/m 2 min 0 min 867 W/m 45,1 km/h (6 Bft) 100,00 %
04.07.2023 14:56 22,6 C 25,0 C 19,4 C 56 % 1013,6 hPa 0,0 l/m 2 min 0 min 876 W/m 19,3 km/h (3 Bft) 100,00 %
04.07.2023 14:58 22,7 C 25,0 C 19,4 C 55 % 1013,7 hPa 0,0 l/m 2 min 0 min 777 W/m 16,1 km/h (3 Bft) 100,00 %
04.07.2023 15:00 22,8 C 25,6 C 19,4 C 56 % 1013,6 hPa 0,0 l/m 2 min 0 min 699 W/m 12,9 km/h (3 Bft) 97,87 %
04.07.2023 15:02 22,9 C 25,6 C 19,4 C 57 % 1013,6 hPa 0,0 l/m 2 min 0 min 715 W/m 12,9 km/h (3 Bft) 93,62 %
04.07.2023 15:04 23,1 C 25,6 C 20,0 C 56 % 1013,6 hPa 0,0 l/m 2 min 0 min 656 W/m 22,5 km/h (4 Bft) 97,96 %
04.07.2023 15:06 23,2 C 25,0 C 19,4 C 55 % 1013,6 hPa 0,0 l/m 2 min 0 min 633 W/m 19,3 km/h (3 Bft) 95,74 %
04.07.2023 15:08 23,2 C 25,0 C 19,4 C 54 % 1013,7 hPa 0,0 l/m 2 min 0 min 665 W/m 22,5 km/h (4 Bft) 97,83 %
04.07.2023 15:10 23,2 C 24,4 C 19,4 C 53 % 1013,6 hPa 0,0 l/m 2 min 0 min 701 W/m 25,7 km/h (4 Bft) 95,74 %
04.07.2023 15:12 23,1 C 23,9 C 19,4 C 54 % 1013,6 hPa 0,0 l/m 0 min 0 min 394 W/m 22,5 km/h (4 Bft) 95,74 %
04.07.2023 15:14 23,1 C 23,9 C 19,4 C 54 % 1013,6 hPa 0,0 l/m 2 min 0 min 420 W/m 12,9 km/h (3 Bft) 93,62 %
04.07.2023 15:16 23,1 C 25,0 C 19,4 C 55 % 1013,6 hPa 0,0 l/m 2 min 0 min 572 W/m 12,9 km/h (3 Bft) 95,74 %
04.07.2023 15:18 23,2 C 25,6 C 20,0 C 55 % 1013,6 hPa 0,0 l/m 2 min 0 min 772 W/m 19,3 km/h (3 Bft) 95,74 %
04.07.2023 15:20 23,2 C 25,6 C 20,0 C 55 % 1013,5 hPa 0,0 l/m 2 min 0 min 734 W/m 16,1 km/h (3 Bft) 93,62 %
04.07.2023 15:22 23,3 C 25,6 C 20,0 C 55 % 1013,6 hPa 0,0 l/m 2 min 0 min 630 W/m 12,9 km/h (3 Bft) 97,87 %
04.07.2023 15:24 23,3 C 24,4 C 19,4 C 54 % 1013,6 hPa 0,0 l/m 2 min 0 min 595 W/m 25,7 km/h (4 Bft) 97,87 %
04.07.2023 15:26 23,2 C 25,0 C 19,4 C 54 % 1013,7 hPa 0,0 l/m 2 min 0 min 634 W/m 16,1 km/h (3 Bft) 95,74 %
04.07.2023 15:28 23,3 C 25,0 C 19,4 C 55 % 1013,5 hPa 0,0 l/m 2 min 0 min 692 W/m 12,9 km/h (3 Bft) 93,62 %
04.07.2023 15:30 23,3 C 25,0 C 19,4 C 55 % 1013,5 hPa 0,0 l/m 2 min 0 min 690 W/m 19,3 km/h (3 Bft) 95,65 %
04.07.2023 15:32 23,4 C 25,6 C 20,0 C 55 % 1013,5 hPa 0,0 l/m 2 min 0 min 710 W/m 12,9 km/h (3 Bft) 95,74 %
04.07.2023 15:34 23,4 C 25,6 C 20,0 C 55 % 1013,5 hPa 0,0 l/m 2 min 0 min 744 W/m 12,9 km/h (3 Bft) 93,62 %
04.07.2023 15:36 23,6 C 26,1 C 20,0 C 56 % 1013,5 hPa 0,0 l/m 2 min 0 min 729 W/m 6,4 km/h (2 Bft) 93,62 %
04.07.2023 15:38 23,7 C 26,1 C 20,0 C 56 % 1013,5 hPa 0,0 l/m 2 min 0 min 637 W/m 16,1 km/h (3 Bft) 97,14 %
04.07.2023 15:40 23,8 C 25,6 C 20,6 C 55 % 1013,5 hPa 0,0 l/m 2 min 0 min 633 W/m 22,5 km/h (4 Bft) 93,62 %
04.07.2023 15:42 23,7 C 24,4 C 20,0 C 53 % 1013,7 hPa 0,0 l/m 2 min 0 min 478 W/m 29,0 km/h (5 Bft) 95,74 %
04.07.2023 15:44 23,6 C 24,4 C 20,0 C 53 % 1013,5 hPa 0,0 l/m 2 min 0 min 390 W/m 22,5 km/h (4 Bft) 93,62 %
04.07.2023 15:46 23,6 C 24,4 C 20,0 C 54 % 1013,5 hPa 0,0 l/m 2 min 0 min 390 W/m 12,9 km/h (3 Bft) 95,74 %
04.07.2023 15:48 23,5 C 23,9 C 20,0 C 54 % 1013,5 hPa 0,0 l/m 0 min 0 min 377 W/m 22,5 km/h (4 Bft) 91,49 %
04.07.2023 15:50 23,4 C 23,3 C 19,4 C 54 % 1013,5 hPa 0,0 l/m 0 min 0 min 353 W/m 22,5 km/h (4 Bft) 95,74 %
04.07.2023 15:52 23,2 C 23,3 C 19,4 C 55 % 1013,4 hPa 0,0 l/m 0 min 0 min 291 W/m 22,5 km/h (4 Bft) 95,74 %
04.07.2023 15:54 23,1 C 22,8 C 19,4 C 54 % 1013,4 hPa 0,0 l/m 0 min 0 min 295 W/m 19,3 km/h (3 Bft) 95,74 %
04.07.2023 15:56 23,1 C 23,9 C 19,4 C 56 % 1013,5 hPa 0,0 l/m 0 min 0 min 329 W/m 9,7 km/h (2 Bft) 95,74 %
04.07.2023 15:58 23,1 C 24,4 C 19,4 C 55 % 1013,4 hPa 0,0 l/m 0 min 0 min 329 W/m 16,1 km/h (3 Bft) 95,92 %
04.07.2023 16:00 23,1 C 23,9 C 19,4 C 55 % 1013,4 hPa 0,0 l/m 0 min 0 min 350 W/m 19,3 km/h (3 Bft) 95,74 %
04.07.2023 16:02 23,1 C 24,4 C 19,4 C 55 % 1013,4 hPa 0,0 l/m 2 min 0 min 442 W/m 19,3 km/h (3 Bft) 95,74 %
04.07.2023 16:04 23,2 C 25,0 C 19,4 C 56 % 1013,4 hPa 0,0 l/m 2 min 0 min 572 W/m 12,9 km/h (3 Bft) 95,92 %
04.07.2023 16:06 23,2 C 24,4 C 19,4 C 55 % 1013,4 hPa 0,0 l/m 2 min 0 min 547 W/m 12,9 km/h (3 Bft) 95,74 %
04.07.2023 16:08 23,2 C 23,9 C 19,4 C 55 % 1013,3 hPa 0,0 l/m 0 min 0 min 362 W/m 16,1 km/h (3 Bft) 95,74 %
04.07.2023 16:10 23,2 C 23,9 C 19,4 C 55 % 1013,4 hPa 0,0 l/m 2 min 0 min 401 W/m 16,1 km/h (3 Bft) 93,62 %
04.07.2023 16:12 23,2 C 23,9 C 19,4 C 55 % 1013,4 hPa 0,0 l/m 2 min 0 min 407 W/m 19,3 km/h (3 Bft) 95,74 %
04.07.2023 16:14 23,2 C 23,9 C 19,4 C 54 % 1013,4 hPa 0,0 l/m 2 min 0 min 419 W/m 16,1 km/h (3 Bft) 97,87 %
04.07.2023 16:16 23,2 C 23,9 C 19,4 C 54 % 1013,4 hPa 0,0 l/m 2 min 0 min 441 W/m 19,3 km/h (3 Bft) 97,83 %
04.07.2023 16:18 23,2 C 23,9 C 19,4 C 54 % 1013,5 hPa 0,0 l/m 2 min 0 min 431 W/m 16,1 km/h (3 Bft) 95,74 %
04.07.2023 16:20 23,2 C 23,9 C 19,4 C 53 % 1013,4 hPa 0,0 l/m 2 min 0 min 446 W/m 19,3 km/h (3 Bft) 97,87 %
04.07.2023 16:22 23,2 C 23,9 C 19,4 C 54 % 1013,4 hPa 0,0 l/m 2 min 0 min 449 W/m 6,4 km/h (2 Bft) 97,87 %
04.07.2023 16:24 23,2 C 23,9 C 19,4 C 53 % 1013,4 hPa 0,0 l/m 2 min 0 min 363 W/m 12,9 km/h (3 Bft) 95,74 %
04.07.2023 16:26 23,2 C 23,9 C 19,4 C 54 % 1013,4 hPa 0,0 l/m 0 min 0 min 316 W/m 19,3 km/h (3 Bft) 95,74 %
04.07.2023 16:28 23,2 C 23,9 C 19,4 C 53 % 1013,4 hPa 0,0 l/m 2 min 0 min 424 W/m 9,7 km/h (2 Bft) 97,87 %
04.07.2023 16:30 23,2 C 24,4 C 19,4 C 54 % 1013,3 hPa 0,0 l/m 2 min 0 min 496 W/m 19,3 km/h (3 Bft) 100,00 %
04.07.2023 16:32 23,2 C 24,4 C 20,0 C 54 % 1013,3 hPa 0,0 l/m 2 min 0 min 454 W/m 16,1 km/h (3 Bft) 100,00 %
04.07.2023 16:34 23,3 C 24,4 C 20,0 C 54 % 1013,3 hPa 0,0 l/m 2 min 0 min 425 W/m 9,7 km/h (2 Bft) 100,00 %
04.07.2023 16:36 23,4 C 25,0 C 20,0 C 55 % 1013,4 hPa 0,0 l/m 2 min 0 min 418 W/m 12,9 km/h (3 Bft) 100,00 %
04.07.2023 16:38 23,4 C 25,0 C 20,0 C 55 % 1013,3 hPa 0,0 l/m 2 min 0 min 463 W/m 16,1 km/h (3 Bft) 97,87 %
04.07.2023 16:40 23,5 C 25,0 C 20,0 C 55 % 1013,3 hPa 0,0 l/m 2 min 0 min 469 W/m 9,7 km/h (2 Bft) 100,00 %
04.07.2023 16:42 23,5 C 25,0 C 20,0 C 54 % 1013,2 hPa 0,0 l/m 2 min 0 min 583 W/m 16,1 km/h (3 Bft) 100,00 %
04.07.2023 16:44 23,6 C 25,0 C 20,0 C 55 % 1013,2 hPa 0,0 l/m 2 min 0 min 555 W/m 12,9 km/h (3 Bft) 100,00 %
04.07.2023 16:46 23,6 C 25,0 C 20,0 C 54 % 1013,2 hPa 0,0 l/m 2 min 0 min 548 W/m 16,1 km/h (3 Bft) 100,00 %
04.07.2023 16:48 23,5 C 25,0 C 20,0 C 54 % 1013,1 hPa 0,0 l/m 2 min 0 min 502 W/m 22,5 km/h (4 Bft) 100,00 %
04.07.2023 16:50 23,5 C 25,0 C 20,0 C 54 % 1013,1 hPa 0,0 l/m 2 min 0 min 497 W/m 19,3 km/h (3 Bft) 100,00 %
04.07.2023 16:52 23,5 C 25,0 C 20,0 C 53 % 1013,1 hPa 0,0 l/m 2 min 0 min 507 W/m 16,1 km/h (3 Bft) 100,00 %
04.07.2023 16:54 23,5 C 25,0 C 20,0 C 54 % 1013,1 hPa 0,0 l/m 2 min 0 min 549 W/m 22,5 km/h (4 Bft) 100,00 %
04.07.2023 16:56 23,5 C 25,0 C 20,0 C 54 % 1013,0 hPa 0,0 l/m 2 min 0 min 508 W/m 25,7 km/h (4 Bft) 100,00 %
04.07.2023 16:58 23,6 C 25,0 C 20,0 C 54 % 1013,1 hPa 0,0 l/m 2 min 0 min 518 W/m 22,5 km/h (4 Bft) 100,00 %
04.07.2023 17:00 23,5 C 25,0 C 20,0 C 54 % 1013,1 hPa 0,0 l/m 2 min 0 min 511 W/m 16,1 km/h (3 Bft) 100,00 %
04.07.2023 17:02 23,4 C 25,0 C 20,0 C 54 % 1013,0 hPa 0,0 l/m 2 min 0 min 496 W/m 16,1 km/h (3 Bft) 100,00 %
04.07.2023 17:04 23,5 C 25,6 C 20,0 C 54 % 1012,9 hPa 0,0 l/m 2 min 0 min 449 W/m 12,9 km/h (3 Bft) 100,00 %
04.07.2023 17:06 23,6 C 25,0 C 20,0 C 54 % 1012,9 hPa 0,0 l/m 2 min 0 min 419 W/m 12,9 km/h (3 Bft) 100,00 %
04.07.2023 17:08 23,6 C 25,0 C 20,0 C 55 % 1012,9 hPa 0,0 l/m 2 min 0 min 438 W/m 12,9 km/h (3 Bft) 100,00 %
04.07.2023 17:10 23,6 C 25,0 C 20,0 C 55 % 1012,9 hPa 0,0 l/m 2 min 0 min 462 W/m 12,9 km/h (3 Bft) 100,00 %
04.07.2023 17:12 23,7 C 25,6 C 20,0 C 55 % 1012,9 hPa 0,0 l/m 2 min 0 min 475 W/m 6,4 km/h (2 Bft) 100,00 %
04.07.2023 17:14 23,7 C 25,0 C 20,0 C 54 % 1012,9 hPa 0,0 l/m 2 min 0 min 493 W/m 12,9 km/h (3 Bft) 100,00 %
04.07.2023 17:16 23,7 C 25,6 C 20,0 C 55 % 1012,9 hPa 0,0 l/m 2 min 0 min 518 W/m 12,9 km/h (3 Bft) 100,00 %
04.07.2023 17:18 23,7 C 25,6 C 20,0 C 55 % 1012,9 hPa 0,0 l/m 2 min 0 min 521 W/m 16,1 km/h (3 Bft) 100,00 %
04.07.2023 17:20 23,8 C 25,0 C 20,0 C 54 % 1013,0 hPa 0,0 l/m 2 min 0 min 504 W/m 12,9 km/h (3 Bft) 100,00 %
04.07.2023 17:22 23,8 C 25,0 C 20,0 C 54 % 1012,8 hPa 0,0 l/m 2 min 0 min 427 W/m 12,9 km/h (3 Bft) 100,00 %
04.07.2023 17:24 23,8 C 25,0 C 20,0 C 53 % 1012,9 hPa 0,0 l/m 2 min 0 min 408 W/m 16,1 km/h (3 Bft) 100,00 %
04.07.2023 17:26 23,7 C 23,9 C 20,0 C 53 % 1012,9 hPa 0,0 l/m 2 min 0 min 324 W/m 12,9 km/h (3 Bft) 100,00 %
04.07.2023 17:28 23,7 C 23,9 C 19,4 C 54 % 1012,9 hPa 0,0 l/m 0 min 0 min 264 W/m 6,4 km/h (2 Bft) 100,00 %
04.07.2023 17:30 23,6 C 23,9 C 19,4 C 54 % 1012,9 hPa 0,0 l/m 2 min 0 min 328 W/m 16,1 km/h (3 Bft) 97,87 %
04.07.2023 17:32 23,6 C 23,9 C 19,4 C 54 % 1012,8 hPa 0,0 l/m 2 min 0 min 316 W/m 16,1 km/h (3 Bft) 95,74 %
04.07.2023 17:34 23,5 C 23,3 C 19,4 C 54 % 1012,9 hPa 0,0 l/m 2 min 0 min 292 W/m 25,7 km/h (4 Bft) 97,87 %
04.07.2023 17:36 23,4 C 23,9 C 19,4 C 54 % 1012,8 hPa 0,0 l/m 2 min 0 min 305 W/m 16,1 km/h (3 Bft) 95,74 %
04.07.2023 17:38 23,3 C 23,9 C 19,4 C 54 % 1012,7 hPa 0,0 l/m 2 min 0 min 330 W/m 12,9 km/h (3 Bft) 97,87 %
04.07.2023 17:40 23,3 C 23,9 C 19,4 C 54 % 1012,7 hPa 0,0 l/m 2 min 0 min 371 W/m 12,9 km/h (3 Bft) 95,74 %
04.07.2023 17:42 23,3 C 24,4 C 19,4 C 55 % 1012,6 hPa 0,0 l/m 2 min 0 min 395 W/m 16,1 km/h (3 Bft) 97,83 %
04.07.2023 17:44 23,4 C 24,4 C 19,4 C 55 % 1012,7 hPa 0,0 l/m 2 min 0 min 453 W/m 16,1 km/h (3 Bft) 95,74 %
04.07.2023 17:46 23,4 C 23,9 C 19,4 C 55 % 1012,6 hPa 0,0 l/m 2 min 0 min 335 W/m 19,3 km/h (3 Bft) 95,74 %
04.07.2023 17:48 23,4 C 23,9 C 19,4 C 55 % 1012,6 hPa 0,0 l/m 0 min 0 min 265 W/m 16,1 km/h (3 Bft) 95,74 %
04.07.2023 17:50 23,4 C 23,3 C 19,4 C 55 % 1012,6 hPa 0,0 l/m 0 min 0 min 209 W/m 12,9 km/h (3 Bft) 93,62 %
04.07.2023 17:52 23,4 C 23,3 C 19,4 C 55 % 1012,5 hPa 0,0 l/m 0 min 0 min 182 W/m 6,4 km/h (2 Bft) 95,74 %
04.07.2023 17:54 23,4 C 22,8 C 19,4 C 55 % 1012,5 hPa 0,0 l/m 0 min 0 min 165 W/m 12,9 km/h (3 Bft) 91,49 %
04.07.2023 17:56 23,3 C 22,8 C 19,4 C 56 % 1012,5 hPa 0,0 l/m 0 min 0 min 188 W/m 12,9 km/h (3 Bft) 95,74 %
04.07.2023 17:58 23,2 C 22,8 C 19,4 C 56 % 1012,5 hPa 0,0 l/m 0 min 0 min 239 W/m 9,7 km/h (2 Bft) 94,29 %
04.07.2023 18:00 23,2 C 22,8 C 19,4 C 55 % 1012,5 hPa 0,0 l/m 2 min 0 min 268 W/m 9,7 km/h (2 Bft) 95,74 %
04.07.2023 18:02 23,1 C 22,8 C 19,4 C 55 % 1012,4 hPa 0,0 l/m 0 min 0 min 247 W/m 12,9 km/h (3 Bft) 93,62 %
04.07.2023 18:04 23,1 C 23,3 C 19,4 C 55 % 1012,5 hPa 0,0 l/m 2 min 0 min 265 W/m 6,4 km/h (2 Bft) 93,88 %
04.07.2023 18:07 23,1 C 23,3 C 19,4 C 56 % 1012,4 hPa 0,0 l/m 0 min 0 min 220 W/m 6,4 km/h (2 Bft) 93,88 %
04.07.2023 18:08 23,1 C 23,3 C 19,4 C 56 % 1012,4 hPa 0,0 l/m 0 min 0 min 240 W/m 9,7 km/h (2 Bft) 96,88 %
04.07.2023 18:10 23,1 C 23,3 C 19,4 C 56 % 1012,4 hPa 0,0 l/m 0 min 0 min 205 W/m 6,4 km/h (2 Bft) 95,74 %
04.07.2023 18:12 23,1 C 22,8 C 19,4 C 56 % 1012,3 hPa 0,0 l/m 0 min 0 min 171 W/m 9,7 km/h (2 Bft) 97,87 %
04.07.2023 18:14 23,1 C 22,8 C 19,4 C 56 % 1012,3 hPa 0,0 l/m 0 min 0 min 145 W/m 9,7 km/h (2 Bft) 97,87 %
04.07.2023 18:16 23,1 C 22,8 C 18,9 C 56 % 1012,3 hPa 0,0 l/m 0 min 0 min 135 W/m 9,7 km/h (2 Bft) 97,87 %
04.07.2023 18:18 23,1 C 22,2 C 18,9 C 55 % 1012,3 hPa 0,0 l/m 0 min 0 min 148 W/m 9,7 km/h (2 Bft) 97,87 %
04.07.2023 18:20 23,0 C 22,2 C 18,9 C 56 % 1012,3 hPa 0,0 l/m 0 min 0 min 154 W/m 6,4 km/h (2 Bft) 100,00 %
04.07.2023 18:22 22,9 C 22,2 C 18,9 C 56 % 1012,3 hPa 0,0 l/m 0 min 0 min 133 W/m 19,3 km/h (3 Bft) 97,87 %
04.07.2023 18:24 22,9 C 22,2 C 18,9 C 56 % 1012,3 hPa 0,0 l/m 0 min 0 min 117 W/m 6,4 km/h (2 Bft) 97,87 %
04.07.2023 18:26 22,9 C 22,2 C 18,9 C 57 % 1012,3 hPa 0,0 l/m 0 min 0 min 118 W/m 6,4 km/h (2 Bft) 100,00 %
04.07.2023 18:28 22,9 C 22,2 C 18,9 C 56 % 1012,2 hPa 0,0 l/m 0 min 0 min 123 W/m 9,7 km/h (2 Bft) 100,00 %
04.07.2023 18:30 22,8 C 22,2 C 18,9 C 56 % 1012,2 hPa 0,0 l/m 0 min 0 min 112 W/m 16,1 km/h (3 Bft) 100,00 %
04.07.2023 18:32 22,8 C 22,2 C 18,9 C 56 % 1012,2 hPa 0,0 l/m 0 min 0 min 107 W/m 12,9 km/h (3 Bft) 100,00 %
04.07.2023 18:34 22,8 C 22,2 C 18,9 C 56 % 1012,2 hPa 0,0 l/m 0 min 0 min 116 W/m 12,9 km/h (3 Bft) 97,87 %
04.07.2023 18:36 22,8 C 22,2 C 18,9 C 56 % 1012,1 hPa 0,0 l/m 0 min 0 min 123 W/m 9,7 km/h (2 Bft) 97,87 %
04.07.2023 18:38 22,8 C 22,2 C 18,9 C 57 % 1012,1 hPa 0,0 l/m 0 min 0 min 117 W/m 9,7 km/h (2 Bft) 100,00 %
04.07.2023 18:40 22,7 C 22,2 C 18,9 C 57 % 1012,1 hPa 0,0 l/m 0 min 0 min 103 W/m 6,4 km/h (2 Bft) 100,00 %
04.07.2023 18:42 22,7 C 22,2 C 18,3 C 56 % 1012,0 hPa 0,0 l/m 0 min 0 min 99 W/m 6,4 km/h (2 Bft) 100,00 %
04.07.2023 18:44 22,7 C 22,2 C 18,3 C 57 % 1012,0 hPa 0,0 l/m 0 min 0 min 105 W/m 6,4 km/h (2 Bft) 95,74 %
04.07.2023 18:46 22,7 C 22,2 C 18,3 C 57 % 1011,9 hPa 0,0 l/m 0 min 0 min 105 W/m 3,2 km/h (1 Bft) 100,00 %
04.07.2023 18:48 22,7 C 22,2 C 18,3 C 57 % 1011,9 hPa 0,0 l/m 0 min 0 min 111 W/m 3,2 km/h (1 Bft) 100,00 %
04.07.2023 18:50 22,6 C 22,2 C 18,3 C 58 % 1011,9 hPa 0,0 l/m 0 min 0 min 132 W/m 6,4 km/h (2 Bft) 100,00 %
04.07.2023 18:52 22,6 C 22,2 C 18,3 C 58 % 1011,8 hPa 0,0 l/m 0 min 0 min 132 W/m 3,2 km/h (1 Bft) 100,00 %
04.07.2023 18:54 22,6 C 22,2 C 18,3 C 58 % 1011,9 hPa 0,0 l/m 0 min 0 min 114 W/m 6,4 km/h (2 Bft) 97,87 %
04.07.2023 18:56 22,6 C 22,2 C 18,3 C 58 % 1011,9 hPa 0,0 l/m 0 min 0 min 99 W/m 3,2 km/h (1 Bft) 95,74 %
04.07.2023 18:58 22,7 C 22,2 C 18,3 C 58 % 1011,8 hPa 0,0 l/m 0 min 0 min 87 W/m 3,2 km/h (1 Bft) 97,87 %
04.07.2023 19:00 22,7 C 22,2 C 18,3 C 58 % 1011,8 hPa 0,0 l/m 0 min 0 min 78 W/m 6,4 km/h (2 Bft) 97,87 %
04.07.2023 19:02 22,7 C 22,2 C 18,3 C 58 % 1011,7 hPa 0,0 l/m 0 min 0 min 79 W/m 3,2 km/h (1 Bft) 95,74 %
04.07.2023 19:04 22,7 C 22,2 C 18,3 C 58 % 1011,8 hPa 0,0 l/m 0 min 0 min 85 W/m 6,4 km/h (2 Bft) 97,96 %
04.07.2023 19:06 22,7 C 22,2 C 18,9 C 58 % 1011,7 hPa 0,0 l/m 0 min 0 min 91 W/m 3,2 km/h (1 Bft) 95,74 %
04.07.2023 19:08 22,7 C 22,2 C 18,3 C 58 % 1011,8 hPa 0,0 l/m 0 min 0 min 94 W/m 3,2 km/h (1 Bft) 97,87 %
04.07.2023 19:10 22,8 C 22,2 C 18,3 C 58 % 1011,7 hPa 0,0 l/m 0 min 0 min 102 W/m 3,2 km/h (1 Bft) 97,83 %
04.07.2023 19:12 22,8 C 22,2 C 18,9 C 58 % 1011,7 hPa 0,0 l/m 0 min 0 min 107 W/m 3,2 km/h (1 Bft) 97,87 %
04.07.2023 19:14 22,8 C 22,2 C 18,9 C 58 % 1011,7 hPa 0,0 l/m 0 min 0 min 106 W/m 6,4 km/h (2 Bft) 97,87 %
04.07.2023 19:16 22,8 C 22,2 C 18,9 C 58 % 1011,6 hPa 0,0 l/m 0 min 0 min 104 W/m 6,4 km/h (2 Bft) 93,75 %
04.07.2023 19:18 22,8 C 22,2 C 18,9 C 58 % 1011,6 hPa 0,0 l/m 0 min 0 min 92 W/m 3,2 km/h (1 Bft) 97,87 %
04.07.2023 19:20 22,9 C 22,2 C 18,9 C 58 % 1011,6 hPa 0,0 l/m 0 min 0 min 75 W/m 3,2 km/h (1 Bft) 97,87 %
04.07.2023 19:22 22,9 C 22,2 C 18,9 C 57 % 1011,6 hPa 0,0 l/m 0 min 0 min 61 W/m 9,7 km/h (2 Bft) 97,87 %
04.07.2023 19:24 22,9 C 22,2 C 18,3 C 58 % 1011,6 hPa 0,0 l/m 0 min 0 min 53 W/m 3,2 km/h (1 Bft) 95,74 %
04.07.2023 19:26 22,9 C 22,2 C 18,3 C 59 % 1011,6 hPa 0,0 l/m 0 min 0 min 49 W/m 3,2 km/h (1 Bft) 97,83 %
04.07.2023 19:28 22,9 C 22,2 C 18,3 C 58 % 1011,6 hPa 0,0 l/m 0 min 0 min 52 W/m 3,2 km/h (1 Bft) 95,74 %
04.07.2023 19:30 22,9 C 22,2 C 18,3 C 59 % 1011,5 hPa 0,0 l/m 0 min 0 min 59 W/m 0,0 km/h (0 Bft) 95,74 %
04.07.2023 19:32 22,9 C 22,2 C 18,3 C 59 % 1011,5 hPa 0,0 l/m 0 min 0 min 64 W/m 0,0 km/h (0 Bft) 97,87 %
04.07.2023 19:34 22,9 C 22,2 C 18,3 C 59 % 1011,5 hPa 0,0 l/m 0 min 0 min 71 W/m 6,4 km/h (2 Bft) 95,74 %
04.07.2023 19:36 22,9 C 22,2 C 18,3 C 58 % 1011,4 hPa 0,0 l/m 0 min 0 min 77 W/m 6,4 km/h (2 Bft) 97,87 %
04.07.2023 19:38 22,9 C 22,2 C 18,3 C 59 % 1011,4 hPa 0,0 l/m 0 min 0 min 77 W/m 6,4 km/h (2 Bft) 97,87 %
04.07.2023 19:40 22,9 C 22,2 C 18,3 C 59 % 1011,4 hPa 0,0 l/m 0 min 0 min 69 W/m 3,2 km/h (1 Bft) 97,83 %
04.07.2023 19:42 22,9 C 22,2 C 18,3 C 59 % 1011,4 hPa 0,0 l/m 0 min 0 min 65 W/m 3,2 km/h (1 Bft) 97,87 %
04.07.2023 19:44 22,9 C 22,2 C 18,3 C 58 % 1011,4 hPa 0,0 l/m 0 min 0 min 62 W/m 3,2 km/h (1 Bft) 95,74 %
04.07.2023 19:46 22,8 C 22,2 C 18,3 C 58 % 1011,3 hPa 0,0 l/m 0 min 0 min 59 W/m 0,0 km/h (0 Bft) 97,87 %
04.07.2023 19:48 22,8 C 22,2 C 18,3 C 59 % 1011,3 hPa 0,0 l/m 0 min 0 min 54 W/m 3,2 km/h (1 Bft) 93,62 %
04.07.2023 19:50 22,8 C 22,2 C 18,3 C 58 % 1011,3 hPa 0,0 l/m 0 min 0 min 44 W/m 3,2 km/h (1 Bft) 97,87 %
04.07.2023 19:52 22,8 C 22,2 C 18,3 C 59 % 1011,2 hPa 0,0 l/m 0 min 0 min 35 W/m 3,2 km/h (1 Bft) 95,74 %
04.07.2023 19:54 22,8 C 21,7 C 17,8 C 60 % 1011,3 hPa 0,0 l/m 0 min 0 min 29 W/m 0,0 km/h (0 Bft) 95,65 %
04.07.2023 19:56 22,8 C 21,7 C 17,8 C 60 % 1011,2 hPa 0,0 l/m 0 min 0 min 26 W/m 0,0 km/h (0 Bft) 95,74 %
04.07.2023 19:58 22,8 C 21,7 C 17,8 C 59 % 1011,2 hPa 0,0 l/m 0 min 0 min 25 W/m 0,0 km/h (0 Bft) 97,87 %
04.07.2023 20:00 22,7 C 21,7 C 17,8 C 58 % 1011,3 hPa 0,0 l/m 0 min 0 min 26 W/m 6,4 km/h (2 Bft) 95,74 %
04.07.2023 20:02 22,7 C 21,7 C 17,8 C 59 % 1011,3 hPa 0,0 l/m 0 min 0 min 23 W/m 0,0 km/h (0 Bft) 93,62 %
04.07.2023 20:04 22,7 C 21,7 C 17,8 C 59 % 1011,2 hPa 0,0 l/m 0 min 0 min 22 W/m 0,0 km/h (0 Bft) 94,44 %
04.07.2023 20:06 22,7 C 21,7 C 17,8 C 59 % 1011,3 hPa 0,0 l/m 0 min 0 min 22 W/m 3,2 km/h (1 Bft) 96,88 %
04.07.2023 20:08 22,7 C 21,7 C 17,8 C 59 % 1011,3 hPa 0,0 l/m 0 min 0 min 23 W/m 0,0 km/h (0 Bft) 94,87 %
04.07.2023 20:10 22,7 C 21,7 C 17,8 C 58 % 1011,3 hPa 0,0 l/m 0 min 0 min 25 W/m 0,0 km/h (0 Bft) 95,65 %
04.07.2023 20:12 22,6 C 21,7 C 17,8 C 58 % 1011,3 hPa 0,0 l/m 0 min 0 min 23 W/m 0,0 km/h (0 Bft) 94,74 %
04.07.2023 20:14 22,6 C 21,7 C 16,7 C 60 % 1011,3 hPa 0,0 l/m 0 min 2 min 19 W/m 0,0 km/h (0 Bft) 95,74 %
04.07.2023 20:16 22,6 C 21,1 C 16,7 C 60 % 1011,3 hPa 0,0 l/m 0 min 0 min 19 W/m 3,2 km/h (1 Bft) 94,64 %
04.07.2023 20:18 22,6 C 21,1 C 16,1 C 61 % 1011,3 hPa 0,0 l/m 0 min 2 min 19 W/m 0,0 km/h (0 Bft) 97,87 %
04.07.2023 20:20 22,6 C 21,1 C 16,1 C 64 % 1011,3 hPa 0,0 l/m 0 min 2 min 16 W/m 0,0 km/h (0 Bft) 97,37 %
04.07.2023 20:22 22,6 C 21,1 C 16,1 C 65 % 1011,3 hPa 0,0 l/m 0 min 2 min 14 W/m 0,0 km/h (0 Bft) 97,87 %
04.07.2023 20:24 22,5 C 20,6 C 16,1 C 66 % 1011,3 hPa 0,0 l/m 0 min 2 min 17 W/m 0,0 km/h (0 Bft) 95,74 %
04.07.2023 20:26 22,5 C 20,6 C 15,6 C 69 % 1011,2 hPa 0,0 l/m 0 min 2 min 18 W/m 0,0 km/h (0 Bft) 97,83 %
04.07.2023 20:28 22,5 C 20,6 C 15,0 C 70 % 1011,2 hPa 0,2 l/m 0 min 2 min 18 W/m 0,0 km/h (0 Bft) 98,21 %
04.07.2023 20:30 22,4 C 20,0 C 14,4 C 71 % 1011,2 hPa 0,0 l/m 0 min 2 min 15 W/m 0,0 km/h (0 Bft) 97,37 %
04.07.2023 20:32 22,3 C 20,0 C 14,4 C 72 % 1011,1 hPa 0,0 l/m 0 min 2 min 14 W/m 0,0 km/h (0 Bft) 94,34 %
04.07.2023 20:34 22,3 C 19,4 C 14,4 C 73 % 1011,1 hPa 0,0 l/m 0 min 2 min 12 W/m 0,0 km/h (0 Bft) 97,87 %
04.07.2023 20:36 22,2 C 19,4 C 14,4 C 75 % 1011,2 hPa 0,0 l/m 0 min 0 min 12 W/m 0,0 km/h (0 Bft) 97,87 %
04.07.2023 20:38 22,1 C 19,4 C 14,4 C 75 % 1011,2 hPa 0,0 l/m 0 min 0 min 11 W/m 0,0 km/h (0 Bft) 95,65 %
04.07.2023 20:40 21,9 C 19,4 C 14,4 C 75 % 1011,1 hPa 0,0 l/m 0 min 0 min 12 W/m 0,0 km/h (0 Bft) 95,74 %
04.07.2023 20:42 21,7 C 19,4 C 14,4 C 75 % 1011,1 hPa 0,0 l/m 0 min 2 min 12 W/m 0,0 km/h (0 Bft) 95,74 %
04.07.2023 20:44 21,6 C 19,4 C 14,4 C 75 % 1011,1 hPa 0,0 l/m 0 min 2 min 11 W/m 0,0 km/h (0 Bft) 97,87 %
04.07.2023 20:46 21,4 C 19,4 C 14,4 C 75 % 1011,2 hPa 0,0 l/m 0 min 2 min 11 W/m 0,0 km/h (0 Bft) 97,87 %
04.07.2023 20:48 21,3 C 19,4 C 13,9 C 77 % 1011,2 hPa 0,0 l/m 0 min 0 min 11 W/m 0,0 km/h (0 Bft) 95,74 %
04.07.2023 20:50 21,3 C 19,4 C 13,9 C 77 % 1011,1 hPa 0,0 l/m 0 min 0 min 9 W/m 0,0 km/h (0 Bft) 100,00 %
04.07.2023 20:52 21,2 C 18,9 C 13,9 C 78 % 1011,2 hPa 0,0 l/m 0 min 2 min 9 W/m 0,0 km/h (0 Bft) 97,56 %
04.07.2023 20:54 21,2 C 18,9 C 13,9 C 79 % 1011,2 hPa 0,0 l/m 0 min 2 min 9 W/m 0,0 km/h (0 Bft) 100,00 %
04.07.2023 20:56 21,1 C 18,9 C 13,9 C 80 % 1011,2 hPa 0,0 l/m 0 min 2 min 11 W/m 0,0 km/h (0 Bft) 100,00 %
04.07.2023 20:58 21,1 C 18,9 C 13,9 C 80 % 1011,2 hPa 0,2 l/m 0 min 2 min 12 W/m 0,0 km/h (0 Bft) 100,00 %
04.07.2023 21:00 20,9 C 18,9 C 13,9 C 80 % 1011,3 hPa 0,0 l/m 0 min 2 min 12 W/m 0,0 km/h (0 Bft) 100,00 %
04.07.2023 21:02 20,9 C 18,9 C 13,9 C 81 % 1011,2 hPa 0,0 l/m 0 min 2 min 12 W/m 0,0 km/h (0 Bft) 95,74 %
04.07.2023 21:04 20,8 C 18,9 C 13,9 C 81 % 1011,2 hPa 0,0 l/m 0 min 2 min 10 W/m 0,0 km/h (0 Bft) 100,00 %
04.07.2023 21:06 20,7 C 18,9 C 13,9 C 81 % 1011,2 hPa 0,0 l/m 0 min 2 min 7 W/m 0,0 km/h (0 Bft) 100,00 %
04.07.2023 21:08 20,7 C 18,9 C 13,9 C 82 % 1011,2 hPa 0,0 l/m 0 min 2 min 5 W/m 0,0 km/h (0 Bft) 100,00 %
04.07.2023 21:10 20,6 C 18,3 C 13,9 C 82 % 1011,2 hPa 0,0 l/m 0 min 0 min 5 W/m 0,0 km/h (0 Bft) 100,00 %
04.07.2023 21:12 20,5 C 18,3 C 13,9 C 83 % 1011,1 hPa 0,0 l/m 0 min 2 min 1 W/m 0,0 km/h (0 Bft) 100,00 %
04.07.2023 21:14 20,4 C 18,3 C 13,9 C 83 % 1011,1 hPa 0,0 l/m 0 min 0 min 0 W/m 0,0 km/h (0 Bft) 100,00 %
04.07.2023 21:16 20,4 C 18,3 C 13,9 C 83 % 1011,1 hPa 0,0 l/m 0 min 0 min 0 W/m 3,2 km/h (1 Bft) 100,00 %
04.07.2023 21:18 20,4 C 18,3 C 13,9 C 84 % 1011,0 hPa 0,0 l/m 0 min 0 min 0 W/m 0,0 km/h (0 Bft) 100,00 %
04.07.2023 21:20 20,3 C 18,3 C 13,9 C 84 % 1011,0 hPa 0,0 l/m 0 min 0 min 0 W/m 0,0 km/h (0 Bft) 100,00 %
04.07.2023 21:22 20,3 C 18,3 C 13,9 C 84 % 1011,0 hPa 0,0 l/m 0 min 0 min 0 W/m 0,0 km/h (0 Bft) 97,83 %
04.07.2023 21:24 20,2 C 18,3 C 13,3 C 84 % 1011,0 hPa 0,0 l/m 0 min 0 min 0 W/m 0,0 km/h (0 Bft) 100,00 %
04.07.2023 21:26 20,1 C 18,3 C 13,3 C 84 % 1011,0 hPa 0,0 l/m 0 min 0 min 0 W/m 0,0 km/h (0 Bft) 97,87 %
04.07.2023 21:28 20,0 C 18,3 C 13,3 C 84 % 1010,9 hPa 0,0 l/m 0 min 0 min 0 W/m 0,0 km/h (0 Bft) 100,00 %
04.07.2023 21:30 19,9 C 18,3 C 13,3 C 84 % 1010,9 hPa 0,0 l/m 0 min 0 min 0 W/m 0,0 km/h (0 Bft) 97,87 %
04.07.2023 21:34 19,7 C 18,3 C 13,3 C 85 % 1010,9 hPa 0,0 l/m 0 min 0 min 0 W/m 0,0 km/h (0 Bft) 98,94 %
04.07.2023 21:36 19,7 C 18,3 C 13,9 C 85 % 1010,8 hPa 0,0 l/m 0 min 0 min 0 W/m 3,2 km/h (1 Bft) 97,87 %
04.07.2023 21:38 19,6 C 18,3 C 13,9 C 85 % 1010,8 hPa 0,0 l/m 0 min 0 min 0 W/m 3,2 km/h (1 Bft) 97,83 %
04.07.2023 21:40 19,4 C 18,3 C 13,9 C 85 % 1010,8 hPa 0,0 l/m 0 min 0 min 0 W/m 3,2 km/h (1 Bft) 97,87 %
04.07.2023 21:42 19,3 C 18,3 C 13,9 C 84 % 1010,8 hPa 0,0 l/m 0 min 0 min 0 W/m 3,2 km/h (1 Bft) 97,87 %
04.07.2023 21:44 19,3 C 18,3 C 13,9 C 84 % 1010,8 hPa 0,0 l/m 0 min 0 min 0 W/m 3,2 km/h (1 Bft) 97,87 %
04.07.2023 21:46 19,2 C 18,3 C 14,4 C 84 % 1010,7 hPa 0,0 l/m 0 min 0 min 0 W/m 3,2 km/h (1 Bft) 97,87 %
04.07.2023 21:48 19,2 C 18,3 C 14,4 C 83 % 1010,7 hPa 0,0 l/m 0 min 0 min 0 W/m 3,2 km/h (1 Bft) 95,74 %
04.07.2023 21:50 19,1 C 18,3 C 15,0 C 83 % 1010,7 hPa 0,0 l/m 0 min 0 min 0 W/m 6,4 km/h (2 Bft) 93,62 %
04.07.2023 21:52 19,1 C 17,8 C 15,0 C 83 % 1010,6 hPa 0,0 l/m 0 min 0 min 0 W/m 6,4 km/h (2 Bft) 95,74 %
04.07.2023 21:54 19,0 C 17,8 C 15,0 C 83 % 1010,5 hPa 0,0 l/m 0 min 0 min 0 W/m 6,4 km/h (2 Bft) 95,65 %
04.07.2023 21:56 18,9 C 17,8 C 14,4 C 83 % 1010,6 hPa 0,0 l/m 0 min 0 min 0 W/m 3,2 km/h (1 Bft) 95,74 %
04.07.2023 21:58 18,9 C 17,8 C 15,0 C 83 % 1010,5 hPa 0,0 l/m 0 min 0 min 0 W/m 3,2 km/h (1 Bft) 93,62 %
04.07.2023 22:00 18,8 C 17,8 C 14,4 C 83 % 1010,5 hPa 0,0 l/m 0 min 0 min 0 W/m 3,2 km/h (1 Bft) 95,74 %
04.07.2023 22:02 18,8 C 17,8 C 15,0 C 83 % 1010,6 hPa 0,0 l/m 0 min 0 min 0 W/m 3,2 km/h (1 Bft) 95,74 %
04.07.2023 22:04 18,8 C 17,8 C 15,0 C 83 % 1010,5 hPa 0,0 l/m 0 min 0 min 0 W/m 3,2 km/h (1 Bft) 97,87 %
04.07.2023 22:06 18,8 C 17,8 C 14,4 C 83 % 1010,5 hPa 0,0 l/m 0 min 0 min 0 W/m 6,4 km/h (2 Bft) 95,65 %
04.07.2023 22:08 18,7 C 17,8 C 15,0 C 83 % 1010,5 hPa 0,0 l/m 0 min 0 min 0 W/m 3,2 km/h (1 Bft) 97,87 %
04.07.2023 22:10 18,7 C 17,8 C 14,4 C 83 % 1010,5 hPa 0,0 l/m 0 min 0 min 0 W/m 3,2 km/h (1 Bft) 97,87 %
04.07.2023 22:12 18,7 C 17,8 C 14,4 C 83 % 1010,4 hPa 0,0 l/m 0 min 0 min 0 W/m 3,2 km/h (1 Bft) 97,87 %
04.07.2023 22:14 18,7 C 17,8 C 14,4 C 83 % 1010,4 hPa 0,0 l/m 0 min 0 min 0 W/m 3,2 km/h (1 Bft) 95,74 %
04.07.2023 22:16 18,7 C 17,8 C 14,4 C 83 % 1010,4 hPa 0,0 l/m 0 min 0 min 0 W/m 3,2 km/h (1 Bft) 97,87 %
04.07.2023 22:18 18,6 C 17,8 C 14,4 C 83 % 1010,5 hPa 0,0 l/m 0 min 0 min 0 W/m 6,4 km/h (2 Bft) 97,87 %
04.07.2023 22:20 18,6 C 17,8 C 14,4 C 83 % 1010,4 hPa 0,0 l/m 0 min 0 min 0 W/m 3,2 km/h (1 Bft) 97,87 %
04.07.2023 22:22 18,6 C 17,8 C 14,4 C 83 % 1010,4 hPa 0,0 l/m 0 min 0 min 0 W/m 3,2 km/h (1 Bft) 100,00 %
04.07.2023 22:24 18,6 C 17,8 C 14,4 C 84 % 1010,3 hPa 0,0 l/m 0 min 0 min 0 W/m 3,2 km/h (1 Bft) 97,83 %
04.07.2023 22:26 18,6 C 17,8 C 14,4 C 84 % 1010,3 hPa 0,0 l/m 0 min 0 min 0 W/m 3,2 km/h (1 Bft) 97,87 %
04.07.2023 22:28 18,5 C 17,8 C 14,4 C 84 % 1010,3 hPa 0,0 l/m 0 min 0 min 0 W/m 6,4 km/h (2 Bft) 100,00 %
04.07.2023 22:30 18,5 C 17,8 C 14,4 C 84 % 1010,3 hPa 0,0 l/m 0 min 0 min 0 W/m 3,2 km/h (1 Bft) 100,00 %
04.07.2023 22:32 18,4 C 17,8 C 14,4 C 84 % 1010,3 hPa 0,0 l/m 0 min 0 min 0 W/m 6,4 km/h (2 Bft) 100,00 %
04.07.2023 22:34 18,4 C 17,8 C 14,4 C 83 % 1010,2 hPa 0,0 l/m 0 min 0 min 0 W/m 3,2 km/h (1 Bft) 100,00 %
04.07.2023 22:36 18,4 C 17,8 C 14,4 C 83 % 1010,1 hPa 0,0 l/m 0 min 0 min 0 W/m 3,2 km/h (1 Bft) 95,65 %
04.07.2023 22:38 18,3 C 17,8 C 14,4 C 83 % 1010,1 hPa 0,0 l/m 0 min 0 min 0 W/m 3,2 km/h (1 Bft) 100,00 %
04.07.2023 22:40 18,3 C 17,2 C 14,4 C 83 % 1010,1 hPa 0,0 l/m 0 min 0 min 0 W/m 3,2 km/h (1 Bft) 97,92 %
04.07.2023 22:42 18,3 C 17,8 C 14,4 C 83 % 1010,1 hPa 0,0 l/m 0 min 0 min 0 W/m 3,2 km/h (1 Bft) 100,00 %
04.07.2023 22:44 18,3 C 17,2 C 14,4 C 83 % 1010,0 hPa 0,0 l/m 0 min 0 min 0 W/m 3,2 km/h (1 Bft) 100,00 %
04.07.2023 22:46 18,3 C 17,2 C 14,4 C 83 % 1009,9 hPa 0,0 l/m 0 min 0 min 0 W/m 3,2 km/h (1 Bft) 100,00 %
04.07.2023 22:48 18,3 C 17,2 C 14,4 C 84 % 1009,9 hPa 0,0 l/m 0 min 2 min 0 W/m 3,2 km/h (1 Bft) 97,87 %
04.07.2023 22:50 18,3 C 17,2 C 14,4 C 84 % 1009,9 hPa 0,0 l/m 0 min 0 min 0 W/m 0,0 km/h (0 Bft) 100,00 %
04.07.2023 22:52 18,3 C 17,2 C 14,4 C 84 % 1009,8 hPa 0,0 l/m 0 min 0 min 0 W/m 3,2 km/h (1 Bft) 100,00 %
04.07.2023 22:54 18,3 C 17,2 C 14,4 C 84 % 1009,7 hPa 0,0 l/m 0 min 0 min 0 W/m 6,4 km/h (2 Bft) 100,00 %
04.07.2023 22:56 18,3 C 17,2 C 13,9 C 84 % 1009,7 hPa 0,0 l/m 0 min 0 min 0 W/m 6,4 km/h (2 Bft) 100,00 %
04.07.2023 22:58 18,2 C 17,2 C 13,9 C 84 % 1009,6 hPa 0,0 l/m 0 min 0 min 0 W/m 6,4 km/h (2 Bft) 95,74 %
04.07.2023 23:00 18,2 C 17,2 C 13,9 C 84 % 1009,7 hPa 0,0 l/m 0 min 0 min 0 W/m 6,4 km/h (2 Bft) 100,00 %
04.07.2023 23:02 18,2 C 17,2 C 14,4 C 84 % 1009,6 hPa 0,0 l/m 0 min 0 min 0 W/m 3,2 km/h (1 Bft) 97,87 %
04.07.2023 23:04 18,1 C 17,2 C 14,4 C 84 % 1009,6 hPa 0,0 l/m 0 min 0 min 0 W/m 3,2 km/h (1 Bft) 100,00 %
04.07.2023 23:06 18,1 C 17,2 C 13,9 C 84 % 1009,5 hPa 0,0 l/m 0 min 0 min 0 W/m 0,0 km/h (0 Bft) 98,31 %
04.07.2023 23:08 18,1 C 17,2 C 13,9 C 84 % 1009,4 hPa 0,0 l/m 0 min 0 min 0 W/m 6,4 km/h (2 Bft) 100,00 %
04.07.2023 23:10 18,1 C 17,2 C 13,9 C 84 % 1009,4 hPa 0,0 l/m 0 min 0 min 0 W/m 6,4 km/h (2 Bft) 98,00 %
04.07.2023 23:12 18,1 C 17,2 C 13,9 C 84 % 1009,4 hPa 0,0 l/m 0 min 0 min 0 W/m 3,2 km/h (1 Bft) 100,00 %
04.07.2023 23:14 18,1 C 17,2 C 13,9 C 84 % 1009,4 hPa 0,0 l/m 0 min 0 min 0 W/m 3,2 km/h (1 Bft) 93,62 %
04.07.2023 23:16 18,1 C 17,2 C 13,9 C 84 % 1009,4 hPa 0,0 l/m 0 min 0 min 0 W/m 0,0 km/h (0 Bft) 97,87 %
04.07.2023 23:18 18,1 C 17,2 C 13,9 C 84 % 1009,4 hPa 0,0 l/m 0 min 0 min 0 W/m 3,2 km/h (1 Bft) 95,65 %
04.07.2023 23:20 18,1 C 17,2 C 13,9 C 84 % 1009,4 hPa 0,0 l/m 0 min 0 min 0 W/m 0,0 km/h (0 Bft) 93,62 %
04.07.2023 23:22 18,1 C 17,2 C 13,9 C 84 % 1009,4 hPa 0,0 l/m 0 min 0 min 0 W/m 3,2 km/h (1 Bft) 93,62 %
04.07.2023 23:24 18,1 C 17,2 C 13,9 C 84 % 1009,3 hPa 0,0 l/m 0 min 0 min 0 W/m 0,0 km/h (0 Bft) 93,62 %
04.07.2023 23:26 18,1 C 17,2 C 13,9 C 85 % 1009,3 hPa 0,0 l/m 0 min 0 min 0 W/m 0,0 km/h (0 Bft) 93,62 %
04.07.2023 23:28 18,1 C 17,2 C 13,9 C 85 % 1009,3 hPa 0,0 l/m 0 min 0 min 0 W/m 3,2 km/h (1 Bft) 95,74 %
04.07.2023 23:30 18,1 C 17,2 C 13,9 C 84 % 1009,2 hPa 0,0 l/m 0 min 0 min 0 W/m 3,2 km/h (1 Bft) 95,74 %
04.07.2023 23:32 18,1 C 16,7 C 13,9 C 84 % 1009,2 hPa 0,0 l/m 0 min 0 min 0 W/m 3,2 km/h (1 Bft) 95,65 %
04.07.2023 23:34 18,0 C 16,7 C 13,9 C 84 % 1009,2 hPa 0,0 l/m 0 min 0 min 0 W/m 3,2 km/h (1 Bft) 89,58 %
04.07.2023 23:36 18,0 C 17,2 C 13,9 C 84 % 1009,1 hPa 0,0 l/m 0 min 0 min 0 W/m 0,0 km/h (0 Bft) 95,74 %
04.07.2023 23:38 18,0 C 17,2 C 13,9 C 85 % 1009,1 hPa 0,0 l/m 0 min 0 min 0 W/m 3,2 km/h (1 Bft) 95,74 %
04.07.2023 23:40 18,0 C 17,2 C 13,9 C 85 % 1009,1 hPa 0,0 l/m 0 min 0 min 0 W/m 3,2 km/h (1 Bft) 93,62 %
04.07.2023 23:42 17,9 C 17,2 C 13,9 C 85 % 1009,1 hPa 0,0 l/m 0 min 0 min 0 W/m 3,2 km/h (1 Bft) 95,74 %
04.07.2023 23:44 17,9 C 17,2 C 13,9 C 85 % 1009,0 hPa 0,0 l/m 0 min 0 min 0 W/m 3,2 km/h (1 Bft) 97,87 %
04.07.2023 23:46 17,9 C 17,2 C 13,9 C 85 % 1008,9 hPa 0,0 l/m 0 min 0 min 0 W/m 3,2 km/h (1 Bft) 97,83 %
04.07.2023 23:48 17,9 C 16,7 C 13,9 C 85 % 1008,9 hPa 0,0 l/m 0 min 0 min 0 W/m 3,2 km/h (1 Bft) 97,87 %
04.07.2023 23:50 17,9 C 16,7 C 13,9 C 85 % 1008,9 hPa 0,0 l/m 0 min 0 min 0 W/m 3,2 km/h (1 Bft) 95,74 %
04.07.2023 23:52 17,9 C 16,7 C 13,9 C 85 % 1008,9 hPa 0,0 l/m 0 min 0 min 0 W/m 3,2 km/h (1 Bft) 97,87 %
04.07.2023 23:54 17,8 C 16,7 C 13,9 C 85 % 1008,8 hPa 0,0 l/m 0 min 0 min 0 W/m 3,2 km/h (1 Bft) 97,87 %
04.07.2023 23:56 17,8 C 16,7 C 13,9 C 85 % 1008,8 hPa 0,0 l/m 0 min 0 min 0 W/m 3,2 km/h (1 Bft) 97,87 %
04.07.2023 23:58 17,8 C 16,7 C 13,9 C 85 % 1008,8 hPa 0,0 l/m 0 min 0 min 0 W/m 3,2 km/h (1 Bft) 93,62 %
_ Min-Zeit 06:08 04:30 05:54 15:10 23:54 - - - - 19:30 04:56
Minimum _ 14,6 C 13,9 C 10,6 C 53 % 1008,8 hPa - - - - 0,0 km/h (0 Bft) 54,35 %
_ Max-Zeit 15:40 13:48 12:28 06:12 11:08 20:28 12:07 20:14 13:54 14:54 00:00
Maximum _ 23,8 C 26,1 C 25,0 C 86 % 1014,2 hPa 0,2 l/m 3 min 2 min 929 W/m 45,1 km/h
SW (6 Bft)
100,00 %
Durchschnitt _ 19,2 C 19,4 C 15,8 C 70 % 1012,4 hPa #0,4 l/m #8:24 h #48 min. 369 W/m 14,0 km/h (3 Bft) 97,44 %
© 2023 W. Hausmann